Wetterdaten: Sonntag, 26.02.2017
Datum Zeit Temp. A. Feuchte A. Luftdruck Regen Wind Richtung Richtung Sonnenschein ET UV Solar Taupunkt Windchill Windben Empfang
26.02.2017 00:00 -0,8 C 90 % 1020,7 hPa 0,0 l/m 0,0 km/h (0 Bft) O 80 0 min 0,000 mm 0,0 UV-I 0 W/m -2,2 C -0,8 C 0,0 km/h (0 Bft) 96,30 %
26.02.2017 00:02 -0,8 C 90 % 1020,7 hPa 0,0 l/m 0,2 km/h (0 Bft) O 80 0 min 0,000 mm 0,0 UV-I 0 W/m -2,2 C -0,8 C 1,6 km/h (1 Bft) 97,83 %
26.02.2017 00:05 -0,8 C 90 % 1020,7 hPa 0,0 l/m 0,1 km/h (0 Bft) O 80 0 min 0,000 mm 0,0 UV-I 0 W/m -2,2 C -0,8 C 1,6 km/h (1 Bft) 97,14 %
26.02.2017 00:06 -0,8 C 90 % 1020,7 hPa 0,0 l/m 0,0 km/h (0 Bft) O 80 0 min 0,000 mm 0,0 UV-I 0 W/m -2,2 C -0,8 C 0,0 km/h (0 Bft) 95,83 %
26.02.2017 00:10 -0,9 C 90 % 1020,6 hPa 0,0 l/m 0,0 km/h (0 Bft) O 80 0 min 0,000 mm 0,0 UV-I 0 W/m -2,3 C -0,9 C 1,6 km/h (1 Bft) 94,85 %
26.02.2017 00:12 -0,9 C 90 % 1020,6 hPa 0,0 l/m 0,0 km/h (0 Bft) O 80 0 min 0,000 mm 0,0 UV-I 0 W/m -2,3 C -0,9 C 0,0 km/h (0 Bft) 94,29 %
26.02.2017 00:15 -0,8 C 90 % 1020,6 hPa 0,0 l/m 0,0 km/h (0 Bft) O 80 0 min 0,000 mm 0,0 UV-I 0 W/m -2,2 C -0,8 C 0,0 km/h (0 Bft) 95,77 %
26.02.2017 00:16 -0,8 C 90 % 1020,6 hPa 0,0 l/m 0,6 km/h (0 Bft) O 80 0 min 0,000 mm 0,0 UV-I 0 W/m -2,2 C -0,8 C 1,6 km/h (1 Bft) 100,00 %
26.02.2017 00:18 -0,8 C 90 % 1020,5 hPa 0,0 l/m 0,1 km/h (0 Bft) O 80 0 min 0,000 mm 0,0 UV-I 0 W/m -2,2 C -0,8 C 1,6 km/h (1 Bft) 96,00 %
26.02.2017 00:20 -0,8 C 90 % 1020,5 hPa 0,0 l/m 0,0 km/h (0 Bft) O 80 0 min 0,000 mm 0,0 UV-I 0 W/m -2,2 C -0,8 C 0,0 km/h (0 Bft) 96,00 %
26.02.2017 00:22 -0,8 C 90 % 1020,5 hPa 0,0 l/m 0,2 km/h (0 Bft) O 80 0 min 0,000 mm 0,0 UV-I 0 W/m -2,2 C -0,8 C 1,6 km/h (1 Bft) 94,74 %
26.02.2017 00:24 -0,8 C 90 % 1020,4 hPa 0,0 l/m 1,2 km/h (1 Bft) O 80 0 min 0,000 mm 0,0 UV-I 0 W/m -2,2 C -0,8 C 3,2 km/h (1 Bft) 98,00 %
26.02.2017 00:26 -0,8 C 90 % 1020,5 hPa 0,0 l/m 1,8 km/h (1 Bft) O 80 0 min 0,000 mm 0,0 UV-I 0 W/m -2,2 C -0,8 C 3,2 km/h (1 Bft) 96,00 %
26.02.2017 00:28 -0,8 C 90 % 1020,5 hPa 0,0 l/m 1,1 km/h (1 Bft) O 80 0 min 0,000 mm 0,0 UV-I 0 W/m -2,2 C -0,8 C 1,6 km/h (1 Bft) 92,68 %
26.02.2017 00:30 -0,8 C 90 % 1020,5 hPa 0,0 l/m 1,0 km/h (0 Bft) O 80 0 min 0,000 mm 0,0 UV-I 0 W/m -2,2 C -0,8 C 3,2 km/h (1 Bft) 96,00 %
26.02.2017 00:32 -0,8 C 90 % 1020,4 hPa 0,0 l/m 0,1 km/h (0 Bft) O 80 0 min 0,000 mm 0,0 UV-I 0 W/m -2,2 C -0,8 C 1,6 km/h (1 Bft) 97,78 %
26.02.2017 00:34 -0,8 C 90 % 1020,3 hPa 0,0 l/m 0,0 km/h (0 Bft) O 80 0 min 0,000 mm 0,0 UV-I 0 W/m -2,2 C -0,8 C 1,6 km/h (1 Bft) 97,87 %
26.02.2017 00:36 -0,9 C 90 % 1020,2 hPa 0,0 l/m 0,0 km/h (0 Bft) O 80 0 min 0,000 mm 0,0 UV-I 0 W/m -2,3 C -0,9 C 1,6 km/h (1 Bft) 100,00 %
26.02.2017 00:38 -0,9 C 90 % 1020,1 hPa 0,0 l/m 0,0 km/h (0 Bft) O 80 0 min 0,000 mm 0,0 UV-I 0 W/m -2,3 C -0,9 C 0,0 km/h (0 Bft) 97,87 %
26.02.2017 00:40 -0,8 C 90 % 1020,0 hPa 0,0 l/m 0,0 km/h (0 Bft) O 80 0 min 0,000 mm 0,0 UV-I 0 W/m -2,2 C -0,8 C 0,0 km/h (0 Bft) 100,00 %
26.02.2017 00:42 -0,8 C 90 % 1020,0 hPa 0,0 l/m 0,0 km/h (0 Bft) O 80 0 min 0,000 mm 0,0 UV-I 0 W/m -2,2 C -0,8 C 0,0 km/h (0 Bft) 98,00 %
26.02.2017 00:44 -0,8 C 90 % 1019,9 hPa 0,0 l/m 0,0 km/h (0 Bft) O 80 0 min 0,000 mm 0,0 UV-I 0 W/m -2,2 C -0,8 C 0,0 km/h (0 Bft) 96,00 %
26.02.2017 00:46 -0,8 C 89 % 1020,0 hPa 0,0 l/m 1,6 km/h (1 Bft) O 80 0 min 0,000 mm 0,0 UV-I 0 W/m -2,4 C -0,8 C 3,2 km/h (1 Bft) 97,56 %
26.02.2017 00:48 -0,8 C 90 % 1019,9 hPa 0,0 l/m 1,1 km/h (1 Bft) O 80 0 min 0,000 mm 0,0 UV-I 0 W/m -2,2 C -0,8 C 3,2 km/h (1 Bft) 94,00 %
26.02.2017 00:50 -1,0 C 89 % 1019,9 hPa 0,0 l/m 1,6 km/h (1 Bft) O 80 0 min 0,000 mm 0,0 UV-I 0 W/m -2,6 C -1,0 C 3,2 km/h (1 Bft) 95,74 %
26.02.2017 00:52 -1,1 C 90 % 1019,8 hPa 0,0 l/m 0,0 km/h (0 Bft) O 80 0 min 0,000 mm 0,0 UV-I 0 W/m -2,5 C -1,1 C 0,0 km/h (0 Bft) 96,00 %
26.02.2017 00:54 -1,2 C 90 % 1019,8 hPa 0,0 l/m 0,0 km/h (0 Bft) O 80 0 min 0,000 mm 0,0 UV-I 0 W/m -2,6 C -1,2 C 0,0 km/h (0 Bft) 97,87 %
26.02.2017 00:56 -1,2 C 91 % 1019,8 hPa 0,0 l/m 0,0 km/h (0 Bft) O 80 0 min 0,000 mm 0,0 UV-I 0 W/m -2,5 C -1,2 C 0,0 km/h (0 Bft) 95,74 %
26.02.2017 00:58 -1,2 C 90 % 1019,8 hPa 0,0 l/m 0,0 km/h (0 Bft) O 80 0 min 0,000 mm 0,0 UV-I 0 W/m -2,6 C -1,2 C 0,0 km/h (0 Bft) 97,14 %
26.02.2017 01:00 -1,2 C 90 % 1019,8 hPa 0,0 l/m 1,5 km/h (1 Bft) O 80 0 min 0,000 mm 0,0 UV-I 0 W/m -2,6 C -1,2 C 3,2 km/h (1 Bft) 96,00 %
26.02.2017 01:01 -1,2 C 91 % 1019,9 hPa 0,0 l/m 2,9 km/h (1 Bft) O 80 0 min 0,000 mm 0,0 UV-I 0 W/m -2,5 C -1,2 C 4,8 km/h (1 Bft) 94,34 %
26.02.2017 01:04 -1,2 C 91 % 1019,9 hPa 0,0 l/m 3,9 km/h (1 Bft) O-SO 107 0 min 0,000 mm 0,0 UV-I 0 W/m -2,5 C -1,2 C 4,8 km/h (1 Bft) 96,00 %
26.02.2017 01:06 -1,3 C 91 % 1019,8 hPa 0,0 l/m 3,1 km/h (1 Bft) SO 133 0 min 0,000 mm 0,0 UV-I 0 W/m -2,6 C -1,3 C 6,4 km/h (2 Bft) 95,74 %
26.02.2017 01:08 -1,3 C 91 % 1019,8 hPa 0,0 l/m 2,8 km/h (1 Bft) SO 138 0 min 0,000 mm 0,0 UV-I 0 W/m -2,6 C -1,3 C 4,8 km/h (1 Bft) 97,87 %
26.02.2017 01:10 -1,3 C 91 % 1019,8 hPa 0,0 l/m 1,4 km/h (1 Bft) SO 138 0 min 0,000 mm 0,0 UV-I 0 W/m -2,6 C -1,3 C 3,2 km/h (1 Bft) 97,87 %
26.02.2017 01:12 -1,3 C 91 % 1019,9 hPa 0,0 l/m 0,8 km/h (0 Bft) SO 138 0 min 0,000 mm 0,0 UV-I 0 W/m -2,6 C -1,3 C 3,2 km/h (1 Bft) 97,22 %
26.02.2017 01:14 -1,3 C 91 % 1019,9 hPa 0,0 l/m 1,8 km/h (1 Bft) SO 138 0 min 0,000 mm 0,0 UV-I 0 W/m -2,6 C -1,3 C 3,2 km/h (1 Bft) 100,00 %
26.02.2017 01:16 -1,2 C 91 % 1019,9 hPa 0,0 l/m 1,5 km/h (1 Bft) SO 138 0 min 0,000 mm 0,0 UV-I 0 W/m -2,5 C -1,2 C 3,2 km/h (1 Bft) 98,11 %
26.02.2017 01:18 -1,2 C 91 % 1019,8 hPa 0,0 l/m 0,2 km/h (0 Bft) SO 138 0 min 0,000 mm 0,0 UV-I 0 W/m -2,5 C -1,2 C 1,6 km/h (1 Bft) 97,87 %
26.02.2017 01:20 -1,1 C 91 % 1019,8 hPa 0,0 l/m 1,5 km/h (1 Bft) SO 138 0 min 0,000 mm 0,0 UV-I 0 W/m -2,4 C -1,1 C 3,2 km/h (1 Bft) 97,87 %
26.02.2017 01:22 -1,1 C 91 % 1019,8 hPa 0,0 l/m 1,2 km/h (1 Bft) SO 138 0 min 0,000 mm 0,0 UV-I 0 W/m -2,4 C -1,1 C 3,2 km/h (1 Bft) 100,00 %
26.02.2017 01:24 -1,1 C 90 % 1019,8 hPa 0,0 l/m 0,0 km/h (0 Bft) SO 138 0 min 0,000 mm 0,0 UV-I 0 W/m -2,5 C -1,1 C 0,0 km/h (0 Bft) 100,00 %
26.02.2017 01:26 -1,1 C 90 % 1019,8 hPa 0,0 l/m 0,5 km/h (0 Bft) SO 138 0 min 0,000 mm 0,0 UV-I 0 W/m -2,5 C -1,1 C 1,6 km/h (1 Bft) 100,00 %
26.02.2017 01:28 -1,2 C 90 % 1019,8 hPa 0,0 l/m 2,2 km/h (1 Bft) SO 138 0 min 0,000 mm 0,0 UV-I 0 W/m -2,6 C -1,2 C 3,2 km/h (1 Bft) 97,87 %
26.02.2017 01:30 -1,2 C 90 % 1019,7 hPa 0,0 l/m 0,9 km/h (0 Bft) SO 138 0 min 0,000 mm 0,0 UV-I 0 W/m -2,6 C -1,2 C 1,6 km/h (1 Bft) 100,00 %
26.02.2017 01:32 -1,2 C 91 % 1019,8 hPa 0,0 l/m 0,9 km/h (0 Bft) SO 138 0 min 0,000 mm 0,0 UV-I 0 W/m -2,5 C -1,2 C 3,2 km/h (1 Bft) 100,00 %
26.02.2017 01:34 -1,3 C 91 % 1019,8 hPa 0,0 l/m 0,4 km/h (0 Bft) SO 138 0 min 0,000 mm 0,0 UV-I 0 W/m -2,6 C -1,3 C 1,6 km/h (1 Bft) 96,00 %
26.02.2017 01:36 -1,3 C 90 % 1019,8 hPa 0,0 l/m 0,0 km/h (0 Bft) SO 138 0 min 0,000 mm 0,0 UV-I 0 W/m -2,7 C -1,3 C 0,0 km/h (0 Bft) 100,00 %
26.02.2017 01:39 -1,4 C 91 % 1019,7 hPa 0,0 l/m 0,7 km/h (0 Bft) SO 138 0 min 0,000 mm 0,0 UV-I 0 W/m -2,7 C -1,4 C 3,2 km/h (1 Bft) 98,59 %
26.02.2017 01:40 -1,4 C 91 % 1019,7 hPa 0,0 l/m 3,1 km/h (1 Bft) SO 138 0 min 0,000 mm 0,0 UV-I 0 W/m -2,7 C -1,4 C 3,2 km/h (1 Bft) 100,00 %
26.02.2017 01:42 -1,4 C 91 % 1019,6 hPa 0,0 l/m 2,3 km/h (1 Bft) SO 138 0 min 0,000 mm 0,0 UV-I 0 W/m -2,7 C -1,4 C 3,2 km/h (1 Bft) 97,87 %
26.02.2017 01:44 -1,4 C 91 % 1019,6 hPa 0,0 l/m 1,7 km/h (1 Bft) SO 138 0 min 0,000 mm 0,0 UV-I 0 W/m -2,7 C -1,4 C 3,2 km/h (1 Bft) 96,00 %
26.02.2017 01:46 -1,4 C 91 % 1019,6 hPa 0,0 l/m 1,7 km/h (1 Bft) SO 138 0 min 0,000 mm 0,0 UV-I 0 W/m -2,7 C -1,4 C 3,2 km/h (1 Bft) 97,87 %
26.02.2017 01:48 -1,5 C 91 % 1019,6 hPa 0,0 l/m 0,3 km/h (0 Bft) SO 138 0 min 0,000 mm 0,0 UV-I 0 W/m -2,8 C -1,5 C 1,6 km/h (1 Bft) 97,37 %
26.02.2017 01:50 -1,6 C 91 % 1019,6 hPa 0,0 l/m 1,5 km/h (1 Bft) SO 138 0 min 0,000 mm 0,0 UV-I 0 W/m -2,9 C -1,6 C 3,2 km/h (1 Bft) 97,92 %
26.02.2017 01:52 -1,6 C 91 % 1019,6 hPa 0,0 l/m 2,1 km/h (1 Bft) SO 138 0 min 0,000 mm 0,0 UV-I 0 W/m -2,9 C -1,6 C 3,2 km/h (1 Bft) 93,62 %
26.02.2017 01:54 -1,4 C 92 % 1019,5 hPa 0,0 l/m 1,6 km/h (1 Bft) SO 138 0 min 0,000 mm 0,0 UV-I 0 W/m -2,5 C -1,4 C 3,2 km/h (1 Bft) 98,00 %
26.02.2017 01:56 -1,4 C 91 % 1019,4 hPa 0,0 l/m 0,8 km/h (0 Bft) SO 138 0 min 0,000 mm 0,0 UV-I 0 W/m -2,7 C -1,4 C 3,2 km/h (1 Bft) 94,00 %
26.02.2017 01:58 -1,4 C 91 % 1019,3 hPa 0,0 l/m 1,5 km/h (1 Bft) SO 138 0 min 0,000 mm 0,0 UV-I 0 W/m -2,7 C -1,4 C 3,2 km/h (1 Bft) 95,74 %
26.02.2017 02:00 -1,4 C 92 % 1019,3 hPa 0,0 l/m 1,3 km/h (1 Bft) SO 138 0 min 0,000 mm 0,0 UV-I 0 W/m -2,5 C -1,4 C 3,2 km/h (1 Bft) 95,74 %
26.02.2017 02:02 -1,4 C 92 % 1019,2 hPa 0,0 l/m 2,6 km/h (1 Bft) SO 138 0 min 0,000 mm 0,0 UV-I 0 W/m -2,5 C -1,4 C 4,8 km/h (1 Bft) 94,00 %
26.02.2017 02:04 -1,3 C 92 % 1019,3 hPa 0,0 l/m 1,4 km/h (1 Bft) SO 138 0 min 0,000 mm 0,0 UV-I 0 W/m -2,4 C -1,3 C 3,2 km/h (1 Bft) 97,87 %
26.02.2017 02:06 -1,3 C 92 % 1019,3 hPa 0,0 l/m 0,5 km/h (0 Bft) SO 138 0 min 0,000 mm 0,0 UV-I 0 W/m -2,4 C -1,3 C 1,6 km/h (1 Bft) 92,11 %
26.02.2017 02:08 -1,3 C 92 % 1019,2 hPa 0,0 l/m 1,1 km/h (1 Bft) SO 138 0 min 0,000 mm 0,0 UV-I 0 W/m -2,4 C -1,3 C 3,2 km/h (1 Bft) 95,74 %
26.02.2017 02:10 -1,2 C 92 % 1019,2 hPa 0,0 l/m 1,5 km/h (1 Bft) SO 138 0 min 0,000 mm 0,0 UV-I 0 W/m -2,3 C -1,2 C 3,2 km/h (1 Bft) 93,62 %
26.02.2017 02:12 -1,2 C 92 % 1019,2 hPa 0,0 l/m 0,8 km/h (0 Bft) SO 138 0 min 0,000 mm 0,0 UV-I 0 W/m -2,3 C -1,2 C 1,6 km/h (1 Bft) 91,49 %
26.02.2017 02:14 -1,2 C 91 % 1019,2 hPa 0,0 l/m 0,3 km/h (0 Bft) SO 138 0 min 0,000 mm 0,0 UV-I 0 W/m -2,5 C -1,2 C 1,6 km/h (1 Bft) 95,74 %
26.02.2017 02:16 -1,3 C 91 % 1019,2 hPa 0,0 l/m 0,4 km/h (0 Bft) SO 138 0 min 0,000 mm 0,0 UV-I 0 W/m -2,6 C -1,3 C 1,6 km/h (1 Bft) 96,00 %
26.02.2017 02:18 -1,3 C 91 % 1019,1 hPa 0,0 l/m 0,1 km/h (0 Bft) SO 138 0 min 0,000 mm 0,0 UV-I 0 W/m -2,6 C -1,3 C 1,6 km/h (1 Bft) 97,87 %
26.02.2017 02:20 -1,3 C 91 % 1019,1 hPa 0,0 l/m 0,6 km/h (0 Bft) SO 138 0 min 0,000 mm 0,0 UV-I 0 W/m -2,6 C -1,3 C 3,2 km/h (1 Bft) 93,62 %
26.02.2017 02:22 -1,3 C 91 % 1019,1 hPa 0,0 l/m 0,8 km/h (0 Bft) SO 138 0 min 0,000 mm 0,0 UV-I 0 W/m -2,6 C -1,3 C 3,2 km/h (1 Bft) 95,74 %
26.02.2017 02:24 -1,3 C 91 % 1019,0 hPa 0,0 l/m 0,9 km/h (0 Bft) SO 138 0 min 0,000 mm 0,0 UV-I 0 W/m -2,6 C -1,3 C 3,2 km/h (1 Bft) 97,87 %
26.02.2017 02:26 -1,3 C 91 % 1018,9 hPa 0,0 l/m 0,2 km/h (0 Bft) SO 138 0 min 0,000 mm 0,0 UV-I 0 W/m -2,6 C -1,3 C 1,6 km/h (1 Bft) 97,87 %
26.02.2017 02:28 -1,4 C 91 % 1018,9 hPa 0,0 l/m 0,1 km/h (0 Bft) SO 138 0 min 0,000 mm 0,0 UV-I 0 W/m -2,7 C -1,4 C 1,6 km/h (1 Bft) 97,87 %
26.02.2017 02:30 -1,3 C 91 % 1018,9 hPa 0,0 l/m 0,0 km/h (0 Bft) SO 138 0 min 0,000 mm 0,0 UV-I 0 W/m -2,6 C -1,3 C 0,0 km/h (0 Bft) 93,62 %
26.02.2017 02:32 -1,3 C 91 % 1018,9 hPa 0,0 l/m 0,0 km/h (0 Bft) SO 138 0 min 0,000 mm 0,0 UV-I 0 W/m -2,6 C -1,3 C 0,0 km/h (0 Bft) 95,74 %
26.02.2017 02:34 -1,3 C 91 % 1018,9 hPa 0,0 l/m 0,1 km/h (0 Bft) SO 138 0 min 0,000 mm 0,0 UV-I 0 W/m -2,6 C -1,3 C 1,6 km/h (1 Bft) 95,74 %
26.02.2017 02:36 -1,4 C 91 % 1018,8 hPa 0,0 l/m 1,6 km/h (1 Bft) SO 138 0 min 0,000 mm 0,0 UV-I 0 W/m -2,7 C -1,4 C 3,2 km/h (1 Bft) 97,44 %
26.02.2017 02:38 -1,4 C 91 % 1018,9 hPa 0,0 l/m 1,0 km/h (0 Bft) SO 138 0 min 0,000 mm 0,0 UV-I 0 W/m -2,7 C -1,4 C 1,6 km/h (1 Bft) 91,49 %
26.02.2017 02:40 -1,5 C 91 % 1018,9 hPa 0,0 l/m 0,0 km/h (0 Bft) SO 138 0 min 0,000 mm 0,0 UV-I 0 W/m -2,8 C -1,5 C 0,0 km/h (0 Bft) 100,00 %
26.02.2017 02:42 -1,5 C 92 % 1018,8 hPa 0,0 l/m 0,0 km/h (0 Bft) SO 138 0 min 0,000 mm 0,0 UV-I 0 W/m -2,6 C -1,5 C 0,0 km/h (0 Bft) 98,00 %
26.02.2017 02:44 -1,4 C 92 % 1018,8 hPa 0,0 l/m 0,0 km/h (0 Bft) SO 138 0 min 0,000 mm 0,0 UV-I 0 W/m -2,5 C -1,4 C 0,0 km/h (0 Bft) 94,29 %
26.02.2017 02:46 -1,4 C 92 % 1018,8 hPa 0,0 l/m 0,0 km/h (0 Bft) SO 138 0 min 0,000 mm 0,0 UV-I 0 W/m -2,5 C -1,4 C 0,0 km/h (0 Bft) 94,00 %
26.02.2017 02:48 -1,4 C 92 % 1018,7 hPa 0,0 l/m 0,0 km/h (0 Bft) SO 138 0 min 0,000 mm 0,0 UV-I 0 W/m -2,5 C -1,4 C 0,0 km/h (0 Bft) 97,87 %
26.02.2017 02:50 -1,4 C 92 % 1018,6 hPa 0,0 l/m 0,9 km/h (0 Bft) SO 138 0 min 0,000 mm 0,0 UV-I 0 W/m -2,5 C -1,4 C 3,2 km/h (1 Bft) 100,00 %
26.02.2017 02:52 -1,4 C 92 % 1018,6 hPa 0,0 l/m 1,4 km/h (1 Bft) SO 138 0 min 0,000 mm 0,0 UV-I 0 W/m -2,5 C -1,4 C 3,2 km/h (1 Bft) 100,00 %
26.02.2017 02:54 -1,4 C 92 % 1018,6 hPa 0,0 l/m 0,3 km/h (0 Bft) SO 138 0 min 0,000 mm 0,0 UV-I 0 W/m -2,5 C -1,4 C 1,6 km/h (1 Bft) 100,00 %
26.02.2017 02:56 -1,4 C 92 % 1018,5 hPa 0,0 l/m 0,0 km/h (0 Bft) SO 138 0 min 0,000 mm 0,0 UV-I 0 W/m -2,5 C -1,4 C 0,0 km/h (0 Bft) 100,00 %
26.02.2017 02:58 -1,4 C 92 % 1018,5 hPa 0,0 l/m 0,0 km/h (0 Bft) SO 138 0 min 0,000 mm 0,0 UV-I 0 W/m -2,5 C -1,4 C 0,0 km/h (0 Bft) 100,00 %
26.02.2017 03:00 -1,3 C 92 % 1018,4 hPa 0,0 l/m 0,0 km/h (0 Bft) SO 138 0 min 0,000 mm 0,0 UV-I 0 W/m -2,4 C -1,3 C 1,6 km/h (1 Bft) 95,74 %
26.02.2017 03:02 -1,4 C 92 % 1018,4 hPa 0,0 l/m 1,0 km/h (0 Bft) SO 138 0 min 0,000 mm 0,0 UV-I 0 W/m -2,5 C -1,4 C 3,2 km/h (1 Bft) 97,37 %
26.02.2017 03:04 -1,4 C 91 % 1018,4 hPa 0,0 l/m 0,5 km/h (0 Bft) SO 138 0 min 0,000 mm 0,0 UV-I 0 W/m -2,7 C -1,4 C 1,6 km/h (1 Bft) 95,74 %
26.02.2017 03:06 -1,5 C 92 % 1018,4 hPa 0,0 l/m 0,1 km/h (0 Bft) SO 138 0 min 0,000 mm 0,0 UV-I 0 W/m -2,6 C -1,5 C 1,6 km/h (1 Bft) 97,87 %
26.02.2017 03:08 -1,5 C 92 % 1018,4 hPa 0,0 l/m 0,0 km/h (0 Bft) SO 138 0 min 0,000 mm 0,0 UV-I 0 W/m -2,6 C -1,5 C 0,0 km/h (0 Bft) 95,65 %
26.02.2017 03:10 -1,6 C 92 % 1018,4 hPa 0,0 l/m 0,0 km/h (0 Bft) SO 138 0 min 0,000 mm 0,0 UV-I 0 W/m -2,7 C -1,6 C 0,0 km/h (0 Bft) 97,92 %
26.02.2017 03:12 -1,6 C 92 % 1018,5 hPa 0,0 l/m 0,0 km/h (0 Bft) SO 138 0 min 0,000 mm 0,0 UV-I 0 W/m -2,7 C -1,6 C 0,0 km/h (0 Bft) 93,62 %
26.02.2017 03:14 -1,6 C 92 % 1018,4 hPa 0,0 l/m 0,0 km/h (0 Bft) SO 138 0 min 0,000 mm 0,0 UV-I 0 W/m -2,7 C -1,6 C 0,0 km/h (0 Bft) 95,74 %
26.02.2017 03:16 -1,5 C 92 % 1018,3 hPa 0,0 l/m 0,3 km/h (0 Bft) SO 138 0 min 0,000 mm 0,0 UV-I 0 W/m -2,6 C -1,5 C 1,6 km/h (1 Bft) 94,00 %
26.02.2017 03:18 -1,5 C 92 % 1018,3 hPa 0,0 l/m 0,9 km/h (0 Bft) SO 138 0 min 0,000 mm 0,0 UV-I 0 W/m -2,6 C -1,5 C 3,2 km/h (1 Bft) 98,00 %
26.02.2017 03:20 -1,5 C 92 % 1018,3 hPa 0,0 l/m 0,0 km/h (0 Bft) SO 138 0 min 0,000 mm 0,0 UV-I 0 W/m -2,6 C -1,5 C 0,0 km/h (0 Bft) 98,00 %
26.02.2017 03:22 -1,5 C 92 % 1018,3 hPa 0,0 l/m 0,0 km/h (0 Bft) SO 138 0 min 0,000 mm 0,0 UV-I 0 W/m -2,6 C -1,5 C 1,6 km/h (1 Bft) 97,87 %
26.02.2017 03:24 -1,6 C 92 % 1018,3 hPa 0,0 l/m 1,3 km/h (1 Bft) SO 138 0 min 0,000 mm 0,0 UV-I 0 W/m -2,7 C -1,6 C 3,2 km/h (1 Bft) 97,87 %
26.02.2017 03:26 -1,6 C 92 % 1018,3 hPa 0,0 l/m 0,0 km/h (0 Bft) SO 138 0 min 0,000 mm 0,0 UV-I 0 W/m -2,7 C -1,6 C 0,0 km/h (0 Bft) 97,87 %
26.02.2017 03:28 -1,6 C 92 % 1018,3 hPa 0,0 l/m 1,1 km/h (1 Bft) SO 138 0 min 0,000 mm 0,0 UV-I 0 W/m -2,7 C -1,6 C 3,2 km/h (1 Bft) 94,29 %
26.02.2017 03:30 -1,6 C 92 % 1018,3 hPa 0,0 l/m 2,0 km/h (1 Bft) SO 138 0 min 0,000 mm 0,0 UV-I 0 W/m -2,7 C -1,6 C 3,2 km/h (1 Bft) 100,00 %
26.02.2017 03:32 -1,6 C 92 % 1018,3 hPa 0,0 l/m 0,4 km/h (0 Bft) SO 138 0 min 0,000 mm 0,0 UV-I 0 W/m -2,7 C -1,6 C 1,6 km/h (1 Bft) 97,87 %
26.02.2017 03:34 -1,6 C 92 % 1018,2 hPa 0,0 l/m 0,0 km/h (0 Bft) SO 138 0 min 0,000 mm 0,0 UV-I 0 W/m -2,7 C -1,6 C 0,0 km/h (0 Bft) 100,00 %
26.02.2017 03:36 -1,6 C 93 % 1018,2 hPa 0,0 l/m 0,0 km/h (0 Bft) SO 138 0 min 0,000 mm 0,0 UV-I 0 W/m -2,6 C -1,6 C 0,0 km/h (0 Bft) 97,87 %
26.02.2017 03:38 -1,6 C 93 % 1018,2 hPa 0,0 l/m 0,0 km/h (0 Bft) SO 138 0 min 0,000 mm 0,0 UV-I 0 W/m -2,6 C -1,6 C 0,0 km/h (0 Bft) 97,87 %
26.02.2017 03:40 -1,6 C 93 % 1018,1 hPa 0,0 l/m 0,0 km/h (0 Bft) SO 138 0 min 0,000 mm 0,0 UV-I 0 W/m -2,6 C -1,6 C 0,0 km/h (0 Bft) 96,00 %
26.02.2017 03:42 -1,7 C 93 % 1018,1 hPa 0,0 l/m 0,0 km/h (0 Bft) SO 138 0 min 0,000 mm 0,0 UV-I 0 W/m -2,7 C -1,7 C 0,0 km/h (0 Bft) 93,62 %
26.02.2017 03:44 -1,7 C 93 % 1018,0 hPa 0,0 l/m 0,0 km/h (0 Bft) SO 138 0 min 0,000 mm 0,0 UV-I 0 W/m -2,7 C -1,7 C 0,0 km/h (0 Bft) 100,00 %
26.02.2017 03:46 -1,6 C 93 % 1018,0 hPa 0,0 l/m 0,0 km/h (0 Bft) SO 138 0 min 0,000 mm 0,0 UV-I 0 W/m -2,6 C -1,6 C 0,0 km/h (0 Bft) 97,87 %
26.02.2017 03:48 -1,6 C 93 % 1017,9 hPa 0,0 l/m 0,0 km/h (0 Bft) SO 138 0 min 0,000 mm 0,0 UV-I 0 W/m -2,6 C -1,6 C 0,0 km/h (0 Bft) 97,87 %
26.02.2017 03:50 -1,5 C 93 % 1017,8 hPa 0,0 l/m 0,0 km/h (0 Bft) SO 138 0 min 0,000 mm 0,0 UV-I 0 W/m -2,5 C -1,5 C 0,0 km/h (0 Bft) 100,00 %
26.02.2017 03:52 -1,5 C 93 % 1017,8 hPa 0,0 l/m 0,0 km/h (0 Bft) SO 138 0 min 0,000 mm 0,0 UV-I 0 W/m -2,5 C -1,5 C 0,0 km/h (0 Bft) 100,00 %
26.02.2017 03:54 -1,4 C 93 % 1017,7 hPa 0,0 l/m 0,0 km/h (0 Bft) SO 138 0 min 0,000 mm 0,0 UV-I 0 W/m -2,4 C -1,4 C 0,0 km/h (0 Bft) 96,00 %
26.02.2017 03:56 -1,4 C 93 % 1017,8 hPa 0,0 l/m 0,0 km/h (0 Bft) SO 138 0 min 0,000 mm 0,0 UV-I 0 W/m -2,4 C -1,4 C 0,0 km/h (0 Bft) 93,62 %
26.02.2017 03:58 -1,4 C 93 % 1017,8 hPa 0,0 l/m 0,0 km/h (0 Bft) SO 138 0 min 0,000 mm 0,0 UV-I 0 W/m -2,4 C -1,4 C 0,0 km/h (0 Bft) 100,00 %
26.02.2017 04:00 -1,3 C 93 % 1017,8 hPa 0,0 l/m 0,0 km/h (0 Bft) SO 138 0 min 0,000 mm 0,0 UV-I 0 W/m -2,3 C -1,3 C 0,0 km/h (0 Bft) 100,00 %
26.02.2017 04:02 -1,3 C 93 % 1017,9 hPa 0,0 l/m 0,0 km/h (0 Bft) SO 138 0 min 0,000 mm 0,0 UV-I 0 W/m -2,3 C -1,3 C 0,0 km/h (0 Bft) 88,89 %
26.02.2017 04:04 -1,3 C 93 % 1017,8 hPa 0,0 l/m 0,0 km/h (0 Bft) SO 138 0 min 0,000 mm 0,0 UV-I 0 W/m -2,3 C -1,3 C 0,0 km/h (0 Bft) 97,87 %
26.02.2017 04:06 -1,4 C 92 % 1017,8 hPa 0,0 l/m 0,0 km/h (0 Bft) SO 138 0 min 0,000 mm 0,0 UV-I 0 W/m -2,5 C -1,4 C 0,0 km/h (0 Bft) 100,00 %
26.02.2017 04:08 -1,4 C 92 % 1017,8 hPa 0,0 l/m 0,0 km/h (0 Bft) SO 138 0 min 0,000 mm 0,0 UV-I 0 W/m -2,5 C -1,4 C 1,6 km/h (1 Bft) 91,49 %
26.02.2017 04:10 -1,4 C 92 % 1017,8 hPa 0,0 l/m 0,0 km/h (0 Bft) SO 138 0 min 0,000 mm 0,0 UV-I 0 W/m -2,5 C -1,4 C 0,0 km/h (0 Bft) 97,87 %
26.02.2017 04:12 -1,5 C 92 % 1017,8 hPa 0,0 l/m 0,0 km/h (0 Bft) SO 138 0 min 0,000 mm 0,0 UV-I 0 W/m -2,6 C -1,5 C 0,0 km/h (0 Bft) 91,49 %
26.02.2017 04:14 -1,6 C 92 % 1017,9 hPa 0,0 l/m 0,0 km/h (0 Bft) SO 138 0 min 0,000 mm 0,0 UV-I 0 W/m -2,7 C -1,6 C 0,0 km/h (0 Bft) 91,49 %
26.02.2017 04:16 -1,6 C 93 % 1017,9 hPa 0,0 l/m 0,2 km/h (0 Bft) SO 138 0 min 0,000 mm 0,0 UV-I 0 W/m -2,6 C -1,6 C 1,6 km/h (1 Bft) 93,62 %
26.02.2017 04:18 -1,6 C 93 % 1017,9 hPa 0,0 l/m 0,0 km/h (0 Bft) SO 138 0 min 0,000 mm 0,0 UV-I 0 W/m -2,6 C -1,6 C 0,0 km/h (0 Bft) 94,00 %
26.02.2017 04:20 -1,6 C 93 % 1017,7 hPa 0,0 l/m 0,0 km/h (0 Bft) SO 138 0 min 0,000 mm 0,0 UV-I 0 W/m -2,6 C -1,6 C 0,0 km/h (0 Bft) 92,00 %
26.02.2017 04:22 -1,7 C 93 % 1017,7 hPa 0,0 l/m 0,0 km/h (0 Bft) SO 138 0 min 0,000 mm 0,0 UV-I 0 W/m -2,7 C -1,7 C 0,0 km/h (0 Bft) 93,62 %
26.02.2017 04:24 -1,7 C 93 % 1017,7 hPa 0,0 l/m 0,0 km/h (0 Bft) SO 138 0 min 0,000 mm 0,0 UV-I 0 W/m -2,7 C -1,7 C 0,0 km/h (0 Bft) 93,62 %
26.02.2017 04:26 -1,7 C 93 % 1017,8 hPa 0,0 l/m 1,0 km/h (0 Bft) SO 138 0 min 0,000 mm 0,0 UV-I 0 W/m -2,7 C -1,7 C 3,2 km/h (1 Bft) 95,74 %
26.02.2017 04:28 -1,7 C 93 % 1017,7 hPa 0,0 l/m 0,3 km/h (0 Bft) SO 138 0 min 0,000 mm 0,0 UV-I 0 W/m -2,7 C -1,7 C 1,6 km/h (1 Bft) 95,12 %
26.02.2017 04:30 -1,7 C 93 % 1017,8 hPa 0,0 l/m 0,0 km/h (0 Bft) SO 138 0 min 0,000 mm 0,0 UV-I 0 W/m -2,7 C -1,7 C 0,0 km/h (0 Bft) 97,87 %
26.02.2017 04:32 -1,6 C 93 % 1017,8 hPa 0,0 l/m 0,0 km/h (0 Bft) SO 138 0 min 0,000 mm 0,0 UV-I 0 W/m -2,6 C -1,6 C 0,0 km/h (0 Bft) 93,62 %
26.02.2017 04:34 -1,6 C 93 % 1017,8 hPa 0,0 l/m 0,0 km/h (0 Bft) SO 138 0 min 0,000 mm 0,0 UV-I 0 W/m -2,6 C -1,6 C 1,6 km/h (1 Bft) 96,00 %
26.02.2017 04:36 -1,6 C 93 % 1017,8 hPa 0,0 l/m 0,0 km/h (0 Bft) SO 138 0 min 0,000 mm 0,0 UV-I 0 W/m -2,6 C -1,6 C 0,0 km/h (0 Bft) 95,83 %
26.02.2017 04:38 -1,6 C 93 % 1017,8 hPa 0,0 l/m 0,0 km/h (0 Bft) SO 138 0 min 0,000 mm 0,0 UV-I 0 W/m -2,6 C -1,6 C 0,0 km/h (0 Bft) 95,74 %
26.02.2017 04:40 -1,5 C 93 % 1017,8 hPa 0,0 l/m 0,0 km/h (0 Bft) SO 138 0 min 0,000 mm 0,0 UV-I 0 W/m -2,5 C -1,5 C 0,0 km/h (0 Bft) 95,74 %
26.02.2017 04:42 -1,5 C 93 % 1017,7 hPa 0,0 l/m 0,0 km/h (0 Bft) SO 138 0 min 0,000 mm 0,0 UV-I 0 W/m -2,5 C -1,5 C 0,0 km/h (0 Bft) 94,00 %
26.02.2017 04:44 -1,5 C 93 % 1017,7 hPa 0,0 l/m 0,0 km/h (0 Bft) SO 138 0 min 0,000 mm 0,0 UV-I 0 W/m -2,5 C -1,5 C 0,0 km/h (0 Bft) 95,74 %
26.02.2017 04:46 -1,4 C 93 % 1017,7 hPa 0,0 l/m 0,3 km/h (0 Bft) SO 138 0 min 0,000 mm 0,0 UV-I 0 W/m -2,4 C -1,4 C 1,6 km/h (1 Bft) 97,87 %
26.02.2017 04:48 -1,4 C 93 % 1017,7 hPa 0,0 l/m 0,1 km/h (0 Bft) SO 138 0 min 0,000 mm 0,0 UV-I 0 W/m -2,4 C -1,4 C 1,6 km/h (1 Bft) 95,74 %
26.02.2017 04:50 -1,4 C 93 % 1017,7 hPa 0,0 l/m 0,0 km/h (0 Bft) SO 138 0 min 0,000 mm 0,0 UV-I 0 W/m -2,4 C -1,4 C 0,0 km/h (0 Bft) 97,87 %
26.02.2017 04:52 -1,4 C 93 % 1017,7 hPa 0,0 l/m 0,0 km/h (0 Bft) SO 138 0 min 0,000 mm 0,0 UV-I 0 W/m -2,4 C -1,4 C 0,0 km/h (0 Bft) 100,00 %
26.02.2017 04:54 -1,4 C 93 % 1017,7 hPa 0,0 l/m 0,0 km/h (0 Bft) SO 138 0 min 0,000 mm 0,0 UV-I 0 W/m -2,4 C -1,4 C 0,0 km/h (0 Bft) 100,00 %
26.02.2017 04:56 -1,4 C 93 % 1017,7 hPa 0,0 l/m 0,0 km/h (0 Bft) SO 138 0 min 0,000 mm 0,0 UV-I 0 W/m -2,4 C -1,4 C 0,0 km/h (0 Bft) 100,00 %
26.02.2017 04:58 -1,4 C 93 % 1017,8 hPa 0,0 l/m 0,5 km/h (0 Bft) SO 138 0 min 0,000 mm 0,0 UV-I 0 W/m -2,4 C -1,4 C 1,6 km/h (1 Bft) 100,00 %
26.02.2017 05:00 -1,4 C 93 % 1017,8 hPa 0,0 l/m 1,8 km/h (1 Bft) SO 138 0 min 0,000 mm 0,0 UV-I 0 W/m -2,4 C -1,4 C 3,2 km/h (1 Bft) 97,87 %
26.02.2017 05:02 -1,4 C 92 % 1017,9 hPa 0,0 l/m 0,8 km/h (0 Bft) SO 138 0 min 0,000 mm 0,0 UV-I 0 W/m -2,5 C -1,4 C 3,2 km/h (1 Bft) 98,00 %
26.02.2017 05:04 -1,5 C 92 % 1017,9 hPa 0,0 l/m 0,0 km/h (0 Bft) SO 138 0 min 0,000 mm 0,0 UV-I 0 W/m -2,6 C -1,5 C 0,0 km/h (0 Bft) 97,87 %
26.02.2017 05:06 -1,6 C 93 % 1017,9 hPa 0,0 l/m 0,0 km/h (0 Bft) SO 138 0 min 0,000 mm 0,0 UV-I 0 W/m -2,6 C -1,6 C 0,0 km/h (0 Bft) 100,00 %
26.02.2017 05:08 -1,6 C 93 % 1017,8 hPa 0,0 l/m 0,0 km/h (0 Bft) SO 138 0 min 0,000 mm 0,0 UV-I 0 W/m -2,6 C -1,6 C 0,0 km/h (0 Bft) 97,87 %
26.02.2017 05:10 -1,6 C 93 % 1017,8 hPa 0,0 l/m 1,0 km/h (0 Bft) SO 138 0 min 0,000 mm 0,0 UV-I 0 W/m -2,6 C -1,6 C 1,6 km/h (1 Bft) 97,87 %
26.02.2017 05:12 -1,6 C 93 % 1017,8 hPa 0,0 l/m 1,3 km/h (1 Bft) SO 138 0 min 0,000 mm 0,0 UV-I 0 W/m -2,6 C -1,6 C 3,2 km/h (1 Bft) 100,00 %
26.02.2017 05:14 -1,6 C 93 % 1017,9 hPa 0,0 l/m 1,5 km/h (1 Bft) SO 138 0 min 0,000 mm 0,0 UV-I 0 W/m -2,6 C -1,6 C 3,2 km/h (1 Bft) 95,74 %
26.02.2017 05:16 -1,6 C 93 % 1018,0 hPa 0,0 l/m 1,6 km/h (1 Bft) SO 138 0 min 0,000 mm 0,0 UV-I 0 W/m -2,6 C -1,6 C 3,2 km/h (1 Bft) 95,74 %
26.02.2017 05:18 -1,6 C 93 % 1018,0 hPa 0,0 l/m 0,1 km/h (0 Bft) SO 138 0 min 0,000 mm 0,0 UV-I 0 W/m -2,6 C -1,6 C 1,6 km/h (1 Bft) 93,75 %
26.02.2017 05:20 -1,6 C 93 % 1018,0 hPa 0,0 l/m 0,0 km/h (0 Bft) SO 138 0 min 0,000 mm 0,0 UV-I 0 W/m -2,6 C -1,6 C 0,0 km/h (0 Bft) 93,62 %
26.02.2017 05:22 -1,5 C 93 % 1018,0 hPa 0,0 l/m 0,0 km/h (0 Bft) SO 138 0 min 0,000 mm 0,0 UV-I 0 W/m -2,5 C -1,5 C 0,0 km/h (0 Bft) 97,87 %
26.02.2017 05:24 -1,5 C 93 % 1017,9 hPa 0,0 l/m 0,0 km/h (0 Bft) SO 138 0 min 0,000 mm 0,0 UV-I 0 W/m -2,5 C -1,5 C 0,0 km/h (0 Bft) 95,74 %
26.02.2017 05:26 -1,5 C 93 % 1017,9 hPa 0,0 l/m 0,0 km/h (0 Bft) SO 138 0 min 0,000 mm 0,0 UV-I 0 W/m -2,5 C -1,5 C 0,0 km/h (0 Bft) 95,74 %
26.02.2017 05:28 -1,6 C 93 % 1017,9 hPa 0,0 l/m 0,0 km/h (0 Bft) SO 138 0 min 0,000 mm 0,0 UV-I 0 W/m -2,6 C -1,6 C 0,0 km/h (0 Bft) 93,62 %
26.02.2017 05:30 -1,5 C 93 % 1017,9 hPa 0,0 l/m 0,0 km/h (0 Bft) SO 138 0 min 0,000 mm 0,0 UV-I 0 W/m -2,5 C -1,5 C 0,0 km/h (0 Bft) 97,87 %
26.02.2017 05:32 -1,4 C 93 % 1017,9 hPa 0,0 l/m 0,5 km/h (0 Bft) SO 138 0 min 0,000 mm 0,0 UV-I 0 W/m -2,4 C -1,4 C 1,6 km/h (1 Bft) 97,14 %
26.02.2017 05:34 -1,4 C 93 % 1018,0 hPa 0,0 l/m 2,5 km/h (1 Bft) SO 138 0 min 0,000 mm 0,0 UV-I 0 W/m -2,4 C -1,4 C 3,2 km/h (1 Bft) 95,92 %
26.02.2017 05:36 -1,4 C 94 % 1017,9 hPa 0,0 l/m 2,9 km/h (1 Bft) SO 138 0 min 0,000 mm 0,0 UV-I 0 W/m -2,2 C -1,4 C 3,2 km/h (1 Bft) 95,74 %
26.02.2017 05:38 -1,3 C 93 % 1017,9 hPa 0,0 l/m 3,1 km/h (1 Bft) SO 138 0 min 0,000 mm 0,0 UV-I 0 W/m -2,3 C -1,3 C 4,8 km/h (1 Bft) 96,00 %
26.02.2017 05:40 -1,3 C 93 % 1018,0 hPa 0,0 l/m 2,4 km/h (1 Bft) SO 138 0 min 0,000 mm 0,0 UV-I 0 W/m -2,3 C -1,3 C 3,2 km/h (1 Bft) 97,87 %
26.02.2017 05:42 -1,3 C 93 % 1018,0 hPa 0,0 l/m 0,9 km/h (0 Bft) SO 138 0 min 0,000 mm 0,0 UV-I 0 W/m -2,3 C -1,3 C 3,2 km/h (1 Bft) 97,87 %
26.02.2017 05:44 -1,3 C 93 % 1017,9 hPa 0,0 l/m 0,2 km/h (0 Bft) SO 138 0 min 0,000 mm 0,0 UV-I 0 W/m -2,3 C -1,3 C 1,6 km/h (1 Bft) 97,87 %
26.02.2017 05:46 -1,3 C 93 % 1017,9 hPa 0,0 l/m 0,1 km/h (0 Bft) SO 138 0 min 0,000 mm 0,0 UV-I 0 W/m -2,3 C -1,3 C 1,6 km/h (1 Bft) 96,00 %
26.02.2017 05:48 -1,2 C 93 % 1017,9 hPa 0,0 l/m 0,2 km/h (0 Bft) SO 138 0 min 0,000 mm 0,0 UV-I 0 W/m -2,2 C -1,2 C 1,6 km/h (1 Bft) 97,87 %
26.02.2017 05:50 -1,2 C 93 % 1017,9 hPa 0,0 l/m 0,8 km/h (0 Bft) SO 138 0 min 0,000 mm 0,0 UV-I 0 W/m -2,2 C -1,2 C 3,2 km/h (1 Bft) 95,74 %
26.02.2017 05:52 -1,2 C 93 % 1017,9 hPa 0,0 l/m 1,6 km/h (1 Bft) SO 138 0 min 0,000 mm 0,0 UV-I 0 W/m -2,2 C -1,2 C 3,2 km/h (1 Bft) 97,92 %
26.02.2017 05:54 -1,2 C 93 % 1017,9 hPa 0,0 l/m 1,8 km/h (1 Bft) SO 138 0 min 0,000 mm 0,0 UV-I 0 W/m -2,2 C -1,2 C 3,2 km/h (1 Bft) 100,00 %
26.02.2017 05:56 -1,2 C 93 % 1017,9 hPa 0,0 l/m 0,6 km/h (0 Bft) SO 138 0 min 0,000 mm 0,0 UV-I 0 W/m -2,2 C -1,2 C 1,6 km/h (1 Bft) 100,00 %
26.02.2017 05:58 -1,2 C 93 % 1017,9 hPa 0,0 l/m 1,1 km/h (1 Bft) SO 138 0 min 0,000 mm 0,0 UV-I 0 W/m -2,2 C -1,2 C 3,2 km/h (1 Bft) 100,00 %
26.02.2017 06:00 -1,1 C 93 % 1017,9 hPa 0,0 l/m 1,7 km/h (1 Bft) SO 138 0 min 0,000 mm 0,0 UV-I 0 W/m -2,1 C -1,1 C 3,2 km/h (1 Bft) 100,00 %
26.02.2017 06:02 -1,1 C 93 % 1018,0 hPa 0,0 l/m 2,4 km/h (1 Bft) SO 138 0 min 0,000 mm 0,0 UV-I 0 W/m -2,1 C -1,1 C 3,2 km/h (1 Bft) 100,00 %
26.02.2017 06:04 -1,1 C 93 % 1018,0 hPa 0,0 l/m 1,5 km/h (1 Bft) SO 138 0 min 0,000 mm 0,0 UV-I 0 W/m -2,1 C -1,1 C 3,2 km/h (1 Bft) 97,87 %
26.02.2017 06:06 -1,1 C 93 % 1018,0 hPa 0,0 l/m 0,9 km/h (0 Bft) SO 138 0 min 0,000 mm 0,0 UV-I 0 W/m -2,1 C -1,1 C 3,2 km/h (1 Bft) 100,00 %
26.02.2017 06:08 -1,1 C 93 % 1018,1 hPa 0,0 l/m 2,9 km/h (1 Bft) SO 138 0 min 0,000 mm 0,0 UV-I 0 W/m -2,1 C -1,1 C 4,8 km/h (1 Bft) 97,87 %
26.02.2017 06:10 -1,1 C 93 % 1018,1 hPa 0,0 l/m 1,8 km/h (1 Bft) SO 138 0 min 0,000 mm 0,0 UV-I 0 W/m -2,1 C -1,1 C 3,2 km/h (1 Bft) 97,87 %
26.02.2017 06:12 -1,1 C 93 % 1018,1 hPa 0,0 l/m 2,2 km/h (1 Bft) SO 138 0 min 0,000 mm 0,0 UV-I 0 W/m -2,1 C -1,1 C 3,2 km/h (1 Bft) 100,00 %
26.02.2017 06:14 -1,1 C 93 % 1018,0 hPa 0,0 l/m 3,8 km/h (1 Bft) SO 138 0 min 0,000 mm 0,0 UV-I 0 W/m -2,1 C -1,1 C 4,8 km/h (1 Bft) 98,00 %
26.02.2017 06:16 -1,1 C 93 % 1018,1 hPa 0,0 l/m 3,5 km/h (1 Bft) S-SO 156 0 min 0,000 mm 0,0 UV-I 0 W/m -2,1 C -1,1 C 4,8 km/h (1 Bft) 100,00 %
26.02.2017 06:18 -1,1 C 93 % 1018,1 hPa 0,0 l/m 1,6 km/h (1 Bft) S-SO 156 0 min 0,000 mm 0,0 UV-I 0 W/m -2,1 C -1,1 C 4,8 km/h (1 Bft) 95,74 %
26.02.2017 06:20 -1,1 C 93 % 1018,0 hPa 0,0 l/m 3,9 km/h (1 Bft) S 171 0 min 0,000 mm 0,0 UV-I 0 W/m -2,1 C -1,1 C 6,4 km/h (2 Bft) 97,56 %
26.02.2017 06:22 -1,1 C 93 % 1018,1 hPa 0,0 l/m 3,9 km/h (1 Bft) S 191 0 min 0,000 mm 0,0 UV-I 0 W/m -2,1 C -1,1 C 6,4 km/h (2 Bft) 93,62 %
26.02.2017 06:24 -1,1 C 93 % 1018,2 hPa 0,0 l/m 4,7 km/h (1 Bft) SW 216 0 min 0,000 mm 0,0 UV-I 0 W/m -2,1 C -1,1 C 6,4 km/h (2 Bft) 95,74 %
26.02.2017 06:26 -1,1 C 93 % 1018,2 hPa 0,0 l/m 5,2 km/h (1 Bft) S-SW 207 0 min 0,000 mm 0,0 UV-I 0 W/m -2,1 C -1,1 C 8,0 km/h (2 Bft) 97,87 %
26.02.2017 06:28 -1,0 C 93 % 1018,1 hPa 0,0 l/m 5,2 km/h (1 Bft) S-SW 202 0 min 0,000 mm 0,0 UV-I 0 W/m -2,0 C -1,0 C 8,0 km/h (2 Bft) 93,62 %
26.02.2017 06:30 -0,9 C 93 % 1018,1 hPa 0,0 l/m 4,0 km/h (1 Bft) S-SW 202 0 min 0,000 mm 0,0 UV-I 0 W/m -1,9 C -0,9 C 6,4 km/h (2 Bft) 98,00 %
26.02.2017 06:32 -0,9 C 93 % 1018,1 hPa 0,0 l/m 2,8 km/h (1 Bft) S-SW 202 0 min 0,000 mm 0,0 UV-I 0 W/m -1,9 C -0,9 C 4,8 km/h (1 Bft) 90,00 %
26.02.2017 06:34 -0,9 C 93 % 1018,1 hPa 0,0 l/m 2,6 km/h (1 Bft) S-SW 200 0 min 0,000 mm 0,0 UV-I 0 W/m -1,9 C -0,9 C 4,8 km/h (1 Bft) 95,74 %
26.02.2017 06:36 -0,9 C 93 % 1018,1 hPa 0,0 l/m 2,9 km/h (1 Bft) S-SW 200 0 min 0,000 mm 0,0 UV-I 0 W/m -1,9 C -0,9 C 4,8 km/h (1 Bft) 94,00 %
26.02.2017 06:38 -0,8 C 93 % 1018,1 hPa 0,0 l/m 1,7 km/h (1 Bft) S-SW 200 0 min 0,000 mm 0,0 UV-I 0 W/m -1,8 C -0,8 C 4,8 km/h (1 Bft) 92,00 %
26.02.2017 06:40 -0,8 C 93 % 1018,0 hPa 0,0 l/m 2,4 km/h (1 Bft) S-SW 200 0 min 0,000 mm 0,0 UV-I 0 W/m -1,8 C -0,8 C 4,8 km/h (1 Bft) 95,74 %
26.02.2017 06:42 -0,8 C 93 % 1018,1 hPa 0,0 l/m 2,1 km/h (1 Bft) S-SW 200 0 min 0,000 mm 0,0 UV-I 0 W/m -1,8 C -0,8 C 3,2 km/h (1 Bft) 94,00 %
26.02.2017 06:44 -0,8 C 93 % 1018,1 hPa 0,0 l/m 0,8 km/h (0 Bft) S-SW 200 0 min 0,000 mm 0,0 UV-I 1 W/m -1,8 C -0,8 C 3,2 km/h (1 Bft) 91,49 %
26.02.2017 06:46 -0,8 C 93 % 1018,1 hPa 0,0 l/m 1,3 km/h (1 Bft) S-SW 200 0 min 0,000 mm 0,0 UV-I 5 W/m -1,8 C -0,8 C 3,2 km/h (1 Bft) 91,49 %
26.02.2017 06:48 -0,8 C 93 % 1018,2 hPa 0,0 l/m 1,6 km/h (1 Bft) S-SW 200 0 min 0,000 mm 0,0 UV-I 5 W/m -1,8 C -0,8 C 3,2 km/h (1 Bft) 91,49 %
26.02.2017 06:50 -0,9 C 93 % 1018,2 hPa 0,0 l/m 1,8 km/h (1 Bft) S-SW 200 0 min 0,000 mm 0,0 UV-I 5 W/m -1,9 C -0,9 C 3,2 km/h (1 Bft) 95,74 %
26.02.2017 06:52 -0,8 C 93 % 1018,1 hPa 0,0 l/m 2,6 km/h (1 Bft) S-SW 200 0 min 0,000 mm 0,0 UV-I 6 W/m -1,8 C -0,8 C 4,8 km/h (1 Bft) 93,62 %
26.02.2017 06:54 -0,8 C 93 % 1018,1 hPa 0,0 l/m 3,0 km/h (1 Bft) S-SW 200 0 min 0,000 mm 0,0 UV-I 8 W/m -1,8 C -0,8 C 4,8 km/h (1 Bft) 100,00 %
26.02.2017 06:56 -0,8 C 93 % 1018,2 hPa 0,0 l/m 2,8 km/h (1 Bft) S-SW 200 0 min 0,000 mm 0,0 UV-I 10 W/m -1,8 C -0,8 C 4,8 km/h (1 Bft) 94,29 %
26.02.2017 06:58 -0,8 C 93 % 1018,2 hPa 0,0 l/m 3,0 km/h (1 Bft) S-SW 200 0 min 0,000 mm 0,0 UV-I 12 W/m -1,8 C -0,8 C 4,8 km/h (1 Bft) 100,00 %
26.02.2017 07:00 -0,8 C 93 % 1018,2 hPa 0,0 l/m 3,3 km/h (1 Bft) S-SW 200 0 min 0,000 mm 0,0 UV-I 13 W/m -1,8 C -0,8 C 4,8 km/h (1 Bft) 95,74 %
26.02.2017 07:02 -0,8 C 93 % 1018,2 hPa 0,0 l/m 1,5 km/h (1 Bft) S-SW 200 2 min 0,000 mm 0,0 UV-I 15 W/m -1,8 C -0,8 C 4,8 km/h (1 Bft) 95,74 %
26.02.2017 07:04 -0,8 C 93 % 1018,2 hPa 0,0 l/m 2,7 km/h (1 Bft) S-SW 200 2 min 0,000 mm 0,0 UV-I 17 W/m -1,8 C -0,8 C 4,8 km/h (1 Bft) 100,00 %
26.02.2017 07:06 -0,8 C 93 % 1018,3 hPa 0,0 l/m 1,1 km/h (1 Bft) S-SW 200 2 min 0,000 mm 0,0 UV-I 20 W/m -1,8 C -0,8 C 3,2 km/h (1 Bft) 100,00 %
26.02.2017 07:08 -0,8 C 93 % 1018,3 hPa 0,0 l/m 2,2 km/h (1 Bft) S-SW 200 2 min 0,000 mm 0,0 UV-I 22 W/m -1,8 C -0,8 C 4,8 km/h (1 Bft) 95,74 %
26.02.2017 07:10 -0,8 C 93 % 1018,2 hPa 0,0 l/m 1,6 km/h (1 Bft) S-SW 193 2 min 0,000 mm 0,0 UV-I 24 W/m -1,8 C -0,8 C 3,2 km/h (1 Bft) 100,00 %
26.02.2017 07:12 -0,8 C 93 % 1018,3 hPa 0,0 l/m 3,4 km/h (1 Bft) S 174 2 min 0,000 mm 0,0 UV-I 27 W/m -1,8 C -0,8 C 6,4 km/h (2 Bft) 100,00 %
26.02.2017 07:14 -0,8 C 93 % 1018,2 hPa 0,0 l/m 4,0 km/h (1 Bft) S 186 2 min 0,000 mm 0,0 UV-I 30 W/m -1,8 C -0,8 C 6,4 km/h (2 Bft) 98,00 %
26.02.2017 07:16 -0,7 C 93 % 1018,4 hPa 0,0 l/m 3,7 km/h (1 Bft) S 190 2 min 0,000 mm 0,0 UV-I 33 W/m -1,7 C -0,7 C 8,0 km/h (2 Bft) 95,74 %
26.02.2017 07:18 -0,7 C 93 % 1018,4 hPa 0,0 l/m 4,1 km/h (1 Bft) S-SW 192 2 min 0,000 mm 0,0 UV-I 38 W/m -1,7 C -0,7 C 6,4 km/h (2 Bft) 97,87 %
26.02.2017 07:20 -0,7 C 93 % 1018,3 hPa 0,0 l/m 4,3 km/h (1 Bft) S 189 2 min 0,000 mm 0,0 UV-I 42 W/m -1,7 C -0,7 C 6,4 km/h (2 Bft) 95,74 %
26.02.2017 07:22 -0,6 C 92 % 1018,3 hPa 0,0 l/m 3,1 km/h (1 Bft) S 169 2 min 0,000 mm 0,0 UV-I 46 W/m -1,7 C -0,6 C 6,4 km/h (2 Bft) 97,87 %
26.02.2017 07:24 -0,6 C 92 % 1018,2 hPa 0,0 l/m 3,3 km/h (1 Bft) S-SO 167 2 min 0,000 mm 0,0 UV-I 53 W/m -1,7 C -0,6 C 6,4 km/h (2 Bft) 95,74 %
26.02.2017 07:26 -0,6 C 92 % 1018,3 hPa 0,0 l/m 1,9 km/h (1 Bft) S-SO 167 2 min 0,000 mm 0,0 UV-I 66 W/m -1,7 C -0,6 C 4,8 km/h (1 Bft) 100,00 %
26.02.2017 07:28 -0,5 C 92 % 1018,4 hPa 0,0 l/m 4,4 km/h (1 Bft) S 178 2 min 0,000 mm 0,0 UV-I 73 W/m -1,6 C -0,5 C 6,4 km/h (2 Bft) 97,87 %
26.02.2017 07:30 -0,5 C 92 % 1018,5 hPa 0,0 l/m 3,3 km/h (1 Bft) S 188 2 min 0,000 mm 0,0 UV-I 80 W/m -1,6 C -0,5 C 4,8 km/h (1 Bft) 91,49 %
26.02.2017 07:32 -0,5 C 92 % 1018,4 hPa 0,0 l/m 2,1 km/h (1 Bft) S 188 2 min 0,000 mm 0,0 UV-I 80 W/m -1,6 C -0,5 C 4,8 km/h (1 Bft) 95,74 %
26.02.2017 07:34 -0,4 C 92 % 1018,4 hPa 0,0 l/m 0,5 km/h (0 Bft) S 188 2 min 0,000 mm 0,0 UV-I 77 W/m -1,5 C -0,4 C 3,2 km/h (1 Bft) 97,87 %
26.02.2017 07:36 -0,4 C 92 % 1018,4 hPa 0,0 l/m 0,0 km/h (0 Bft) S 188 2 min 0,000 mm 0,0 UV-I 77 W/m -1,5 C -0,4 C 0,0 km/h (0 Bft) 95,74 %
26.02.2017 07:38 -0,4 C 92 % 1018,4 hPa 0,0 l/m 0,0 km/h (0 Bft) S 188 2 min 0,000 mm 0,0 UV-I 79 W/m -1,5 C -0,4 C 0,0 km/h (0 Bft) 100,00 %
26.02.2017 07:40 -0,4 C 91 % 1018,5 hPa 0,0 l/m 0,0 km/h (0 Bft) S 188 2 min 0,000 mm 0,0 UV-I 87 W/m -1,7 C -0,4 C 0,0 km/h (0 Bft) 97,87 %
26.02.2017 07:42 -0,3 C 91 % 1018,5 hPa 0,0 l/m 0,1 km/h (0 Bft) S 188 2 min 0,000 mm 0,0 UV-I 90 W/m -1,6 C -0,3 C 1,6 km/h (1 Bft) 100,00 %
26.02.2017 07:44 -0,3 C 91 % 1018,6 hPa 0,0 l/m 0,4 km/h (0 Bft) S 188 2 min 0,000 mm 0,0 UV-I 99 W/m -1,6 C -0,3 C 3,2 km/h (1 Bft) 95,74 %
26.02.2017 07:46 -0,3 C 91 % 1018,7 hPa 0,0 l/m 1,6 km/h (1 Bft) S 188 2 min 0,000 mm 0,0 UV-I 102 W/m -1,6 C -0,3 C 3,2 km/h (1 Bft) 97,87 %
26.02.2017 07:48 -0,2 C 91 % 1018,8 hPa 0,0 l/m 1,1 km/h (1 Bft) S 188 2 min 0,000 mm 0,0 UV-I 111 W/m -1,5 C -0,2 C 3,2 km/h (1 Bft) 97,87 %
26.02.2017 07:50 -0,2 C 91 % 1018,8 hPa 0,0 l/m 0,9 km/h (0 Bft) S 188 2 min 0,000 mm 0,0 UV-I 109 W/m -1,5 C -0,2 C 1,6 km/h (1 Bft) 97,87 %
26.02.2017 07:52 -0,2 C 91 % 1018,8 hPa 0,0 l/m 0,0 km/h (0 Bft) S 188 2 min 0,000 mm 0,0 UV-I 107 W/m -1,5 C -0,2 C 0,0 km/h (0 Bft) 95,74 %
26.02.2017 07:54 -0,2 C 91 % 1018,7 hPa 0,0 l/m 0,0 km/h (0 Bft) S 188 2 min 0,000 mm 0,0 UV-I 111 W/m -1,5 C -0,2 C 0,0 km/h (0 Bft) 97,92 %
26.02.2017 07:56 -0,2 C 91 % 1018,7 hPa 0,0 l/m 1,6 km/h (1 Bft) S 188 2 min 0,000 mm 0,0 UV-I 122 W/m -1,5 C -0,2 C 3,2 km/h (1 Bft) 100,00 %
26.02.2017 07:58 -0,2 C 91 % 1018,7 hPa 0,0 l/m 3,0 km/h (1 Bft) S 188 2 min 0,000 mm 0,0 UV-I 124 W/m -1,5 C -0,2 C 4,8 km/h (1 Bft) 94,74 %
26.02.2017 08:00 -0,1 C 91 % 1018,7 hPa 0,0 l/m 2,6 km/h (1 Bft) S 178 2 min 0,025 mm 0,0 UV-I 121 W/m -1,4 C -0,1 C 3,2 km/h (1 Bft) 92,00 %
26.02.2017 08:02 -0,1 C 91 % 1018,7 hPa 0,0 l/m 3,4 km/h (1 Bft) S 173 2 min 0,000 mm 0,0 UV-I 146 W/m -1,4 C -0,1 C 6,4 km/h (2 Bft) 95,74 %
26.02.2017 08:04 0,0 C 91 % 1018,6 hPa 0,0 l/m 3,8 km/h (1 Bft) S 179 2 min 0,000 mm 0,0 UV-I 179 W/m -1,3 C 0,0 C 6,4 km/h (2 Bft) 95,74 %
26.02.2017 08:06 0,1 C 91 % 1018,6 hPa 0,0 l/m 3,4 km/h (1 Bft) S 184 2 min 0,000 mm 0,0 UV-I 197 W/m -1,2 C 0,1 C 6,4 km/h (2 Bft) 93,62 %
26.02.2017 08:08 0,1 C 91 % 1018,5 hPa 0,0 l/m 4,5 km/h (1 Bft) S-SO 159 2 min 0,000 mm 0,0 UV-I 213 W/m -1,2 C 0,1 C 8,0 km/h (2 Bft) 97,87 %
26.02.2017 08:10 0,2 C 91 % 1018,4 hPa 0,0 l/m 5,4 km/h (1 Bft) S-SO 163 2 min 0,000 mm 0,0 UV-I 226 W/m -1,1 C 0,2 C 9,7 km/h (2 Bft) 89,36 %
26.02.2017 08:12 0,4 C 91 % 1018,4 hPa 0,0 l/m 5,4 km/h (1 Bft) S-SW 205 2 min 0,000 mm 0,0 UV-I 225 W/m -0,9 C 0,4 C 11,3 km/h (2 Bft) 95,74 %
26.02.2017 08:14 0,6 C 90 % 1018,6 hPa 0,0 l/m 7,5 km/h (2 Bft) S-SW 210 2 min 0,000 mm 0,0 UV-I 233 W/m -0,8 C -0,5 C 11,3 km/h (2 Bft) 97,87 %
26.02.2017 08:16 0,7 C 89 % 1018,6 hPa 0,0 l/m 6,8 km/h (2 Bft) S-SW 208 2 min 0,000 mm 0,0 UV-I 230 W/m -0,9 C 0,3 C 9,7 km/h (2 Bft) 94,34 %
26.02.2017 08:18 0,8 C 89 % 1018,6 hPa 0,0 l/m 4,8 km/h (1 Bft) S-SW 209 2 min 0,000 mm 0,0 UV-I 222 W/m -0,8 C 0,8 C 9,7 km/h (2 Bft) 94,74 %
26.02.2017 08:20 0,9 C 89 % 1018,6 hPa 0,0 l/m 4,7 km/h (1 Bft) S 191 2 min 0,000 mm 0,0 UV-I 203 W/m -0,7 C 0,9 C 8,0 km/h (2 Bft) 96,00 %
26.02.2017 08:22 1,1 C 89 % 1018,6 hPa 0,0 l/m 5,4 km/h (1 Bft) S-SW 202 2 min 0,000 mm 0,0 UV-I 194 W/m -0,5 C 1,1 C 8,0 km/h (2 Bft) 95,74 %
26.02.2017 08:24 1,2 C 88 % 1018,6 hPa 0,0 l/m 6,5 km/h (2 Bft) SW 223 2 min 0,000 mm 0,0 UV-I 174 W/m -0,6 C 1,1 C 9,7 km/h (2 Bft) 87,23 %
26.02.2017 08:26 1,3 C 87 % 1018,7 hPa 0,0 l/m 5,1 km/h (1 Bft) S-SW 205 2 min 0,000 mm 0,0 UV-I 146 W/m -0,6 C 1,3 C 8,0 km/h (2 Bft) 91,49 %
26.02.2017 08:28 1,3 C 86 % 1018,7 hPa 0,0 l/m 6,4 km/h (2 Bft) S-SW 207 2 min 0,000 mm 0,0 UV-I 150 W/m -0,8 C 1,3 C 9,7 km/h (2 Bft) 93,62 %
26.02.2017 08:30 1,3 C 86 % 1018,6 hPa 0,0 l/m 4,5 km/h (1 Bft) S 180 2 min 0,000 mm 0,0 UV-I 154 W/m -0,8 C 1,3 C 6,4 km/h (2 Bft) 94,00 %
26.02.2017 08:32 1,3 C 86 % 1018,7 hPa 0,0 l/m 4,3 km/h (1 Bft) S 176 2 min 0,000 mm 0,0 UV-I 149 W/m -0,8 C 1,3 C 8,0 km/h (2 Bft) 93,62 %
26.02.2017 08:34 1,4 C 86 % 1018,8 hPa 0,0 l/m 5,0 km/h (1 Bft) S-SW 196 2 min 0,000 mm 0,0 UV-I 147 W/m -0,7 C 1,4 C 8,0 km/h (2 Bft) 93,62 %
26.02.2017 08:36 1,4 C 86 % 1018,8 hPa 0,0 l/m 4,3 km/h (1 Bft) S-SW 194 2 min 0,000 mm 0,0 UV-I 151 W/m -0,7 C 1,4 C 6,4 km/h (2 Bft) 93,75 %
26.02.2017 08:38 1,4 C 86 % 1018,8 hPa 0,0 l/m 3,2 km/h (1 Bft) S-SW 204 2 min 0,000 mm 0,0 UV-I 162 W/m -0,7 C 1,4 C 4,8 km/h (1 Bft) 91,49 %
26.02.2017 08:40 1,6 C 85 % 1018,8 hPa 0,0 l/m 4,4 km/h (1 Bft) SW 218 2 min 0,000 mm 0,0 UV-I 167 W/m -0,6 C 1,6 C 6,4 km/h (2 Bft) 95,74 %
26.02.2017 08:42 1,6 C 84 % 1018,9 hPa 0,0 l/m 3,8 km/h (1 Bft) SW 218 2 min 0,000 mm 0,0 UV-I 158 W/m -0,8 C 1,6 C 4,8 km/h (1 Bft) 96,00 %
26.02.2017 08:44 1,7 C 84 % 1018,9 hPa 0,0 l/m 5,0 km/h (1 Bft) SW 235 0 min 0,000 mm 0,0 UV-I 157 W/m -0,7 C 1,7 C 6,4 km/h (2 Bft) 91,43 %
26.02.2017 08:46 1,7 C 84 % 1018,9 hPa 0,0 l/m 2,7 km/h (1 Bft) SW 234 2 min 0,000 mm 0,0 UV-I 166 W/m -0,7 C 1,7 C 6,4 km/h (2 Bft) 91,49 %
26.02.2017 08:48 1,7 C 84 % 1018,9 hPa 0,0 l/m 2,3 km/h (1 Bft) SW 235 2 min 0,000 mm 0,0 UV-I 165 W/m -0,7 C 1,7 C 4,8 km/h (1 Bft) 97,87 %
26.02.2017 08:50 1,7 C 84 % 1018,9 hPa 0,0 l/m 0,0 km/h (0 Bft) SW 235 0 min 0,000 mm 0,0 UV-I 163 W/m -0,7 C 1,7 C 1,6 km/h (1 Bft) 100,00 %
26.02.2017 08:52 1,7 C 84 % 1018,9 hPa 0,0 l/m 0,0 km/h (0 Bft) SW 235 0 min 0,000 mm 0,0 UV-I 168 W/m -0,7 C 1,7 C 0,0 km/h (0 Bft) 97,87 %
26.02.2017 08:54 1,7 C 83 % 1018,9 hPa 0,0 l/m 1,6 km/h (1 Bft) SW 235 2 min 0,000 mm 0,0 UV-I 179 W/m -0,9 C 1,7 C 4,8 km/h (1 Bft) 100,00 %
26.02.2017 08:56 1,8 C 83 % 1019,0 hPa 0,0 l/m 2,6 km/h (1 Bft) SW 235 2 min 0,000 mm 0,0 UV-I 204 W/m -0,8 C 1,8 C 4,8 km/h (1 Bft) 100,00 %
26.02.2017 08:58 1,8 C 83 % 1019,0 hPa 0,0 l/m 0,6 km/h (0 Bft) SW 235 2 min 0,000 mm 0,0 UV-I 206 W/m -0,8 C 1,8 C 1,6 km/h (1 Bft) 93,62 %
26.02.2017 09:00 1,9 C 83 % 1019,0 hPa 0,0 l/m 1,1 km/h (1 Bft) SW 235 2 min 0,000 mm 0,0 UV-I 199 W/m -0,7 C 1,9 C 3,2 km/h (1 Bft) 97,87 %
26.02.2017 09:02 2,0 C 84 % 1019,0 hPa 0,0 l/m 0,3 km/h (0 Bft) SW 235 2 min 0,077 mm 0,0 UV-I 195 W/m -0,4 C 2,0 C 3,2 km/h (1 Bft) 96,00 %
26.02.2017 09:04 2,0 C 83 % 1019,0 hPa 0,0 l/m 1,7 km/h (1 Bft) SW 235 2 min 0,000 mm 0,0 UV-I 191 W/m -0,6 C 2,0 C 3,2 km/h (1 Bft) 100,00 %
26.02.2017 09:06 2,0 C 83 % 1019,0 hPa 0,0 l/m 2,0 km/h (1 Bft) SW 235 2 min 0,000 mm 0,3 UV-I 199 W/m -0,6 C 2,0 C 4,8 km/h (1 Bft) 95,74 %
26.02.2017 09:08 2,1 C 82 % 1018,9 hPa 0,0 l/m 4,0 km/h (1 Bft) SW 235 2 min 0,000 mm 0,5 UV-I 200 W/m -0,6 C 2,1 C 6,4 km/h (2 Bft) 97,87 %
26.02.2017 09:10 2,1 C 83 % 1018,9 hPa 0,0 l/m 4,4 km/h (1 Bft) SW 233 2 min 0,000 mm 0,5 UV-I 204 W/m -0,5 C 2,1 C 6,4 km/h (2 Bft) 95,74 %
26.02.2017 09:12 2,3 C 83 % 1018,9 hPa 0,0 l/m 3,8 km/h (1 Bft) SW 233 2 min 0,000 mm 0,5 UV-I 205 W/m -0,3 C 2,3 C 4,8 km/h (1 Bft) 100,00 %
26.02.2017 09:14 2,3 C 82 % 1018,9 hPa 0,0 l/m 4,4 km/h (1 Bft) W-SW 240 2 min 0,000 mm 0,5 UV-I 211 W/m -0,4 C 2,3 C 6,4 km/h (2 Bft) 96,00 %
26.02.2017 09:16 2,3 C 82 % 1018,9 hPa 0,0 l/m 5,0 km/h (1 Bft) SW 236 2 min 0,000 mm 0,5 UV-I 211 W/m -0,4 C 2,3 C 6,4 km/h (2 Bft) 96,00 %
26.02.2017 09:18 2,4 C 82 % 1018,9 hPa 0,0 l/m 5,0 km/h (1 Bft) SW 231 2 min 0,000 mm 0,5 UV-I 217 W/m -0,4 C 2,4 C 6,4 km/h (2 Bft) 97,87 %
26.02.2017 09:20 2,4 C 81 % 1018,9 hPa 0,0 l/m 4,4 km/h (1 Bft) SW 223 2 min 0,000 mm 0,5 UV-I 232 W/m -0,5 C 2,4 C 8,0 km/h (2 Bft) 97,92 %
26.02.2017 09:22 2,4 C 80 % 1018,9 hPa 0,0 l/m 3,7 km/h (1 Bft) SW 223 2 min 0,000 mm 0,6 UV-I 251 W/m -0,7 C 2,4 C 6,4 km/h (2 Bft) 97,87 %
26.02.2017 09:24 2,5 C 79 % 1018,9 hPa 0,0 l/m 5,6 km/h (1 Bft) SW 216 2 min 0,000 mm 0,6 UV-I 264 W/m -0,8 C 2,5 C 8,0 km/h (2 Bft) 97,87 %
26.02.2017 09:26 2,7 C 79 % 1018,9 hPa 0,0 l/m 6,3 km/h (2 Bft) W-SW 240 2 min 0,000 mm 0,6 UV-I 266 W/m -0,6 C 2,7 C 9,7 km/h (2 Bft) 93,62 %
26.02.2017 09:28 2,7 C 78 % 1018,9 hPa 0,0 l/m 6,0 km/h (2 Bft) SW 221 2 min 0,000 mm 0,6 UV-I 260 W/m -0,7 C 2,7 C 8,0 km/h (2 Bft) 100,00 %
26.02.2017 09:30 2,7 C 78 % 1019,0 hPa 0,0 l/m 7,2 km/h (2 Bft) SW 234 2 min 0,000 mm 0,6 UV-I 260 W/m -0,7 C 1,9 C 9,7 km/h (2 Bft) 95,74 %
26.02.2017 09:32 2,7 C 78 % 1019,0 hPa 0,0 l/m 5,7 km/h (1 Bft) SW 236 2 min 0,000 mm 0,6 UV-I 247 W/m -0,7 C 2,7 C 8,0 km/h (2 Bft) 94,29 %
26.02.2017 09:34 2,8 C 79 % 1019,0 hPa 0,0 l/m 4,5 km/h (1 Bft) SW 236 2 min 0,000 mm 0,6 UV-I 237 W/m -0,5 C 2,8 C 8,0 km/h (2 Bft) 100,00 %
26.02.2017 09:36 2,8 C 78 % 1019,0 hPa 0,0 l/m 4,9 km/h (1 Bft) W-SW 243 2 min 0,000 mm 0,6 UV-I 229 W/m -0,6 C 2,8 C 8,0 km/h (2 Bft) 100,00 %
26.02.2017 09:38 2,9 C 79 % 1019,0 hPa 0,0 l/m 5,5 km/h (1 Bft) W-SW 240 2 min 0,000 mm 0,6 UV-I 225 W/m -0,4 C 2,9 C 9,7 km/h (2 Bft) 100,00 %
26.02.2017 09:40 3,1 C 77 % 1019,0 hPa 0,0 l/m 5,7 km/h (1 Bft) W-SW 241 2 min 0,000 mm 0,6 UV-I 224 W/m -0,5 C 3,1 C 8,0 km/h (2 Bft) 95,74 %
26.02.2017 09:42 3,1 C 76 % 1019,0 hPa 0,0 l/m 6,3 km/h (2 Bft) SW 232 2 min 0,000 mm 0,7 UV-I 230 W/m -0,7 C 3,1 C 11,3 km/h (2 Bft) 100,00 %
26.02.2017 09:44 3,1 C 76 % 1018,9 hPa 0,0 l/m 5,7 km/h (1 Bft) W-SW 244 2 min 0,000 mm 0,7 UV-I 241 W/m -0,7 C 3,1 C 8,0 km/h (2 Bft) 98,39 %
26.02.2017 09:46 3,1 C 77 % 1018,8 hPa 0,0 l/m 5,8 km/h (2 Bft) S-SW 209 2 min 0,000 mm 0,7 UV-I 256 W/m -0,5 C 3,1 C 9,7 km/h (2 Bft) 100,00 %
26.02.2017 09:48 3,1 C 77 % 1018,9 hPa 0,0 l/m 8,1 km/h (2 Bft) S-SW 206 2 min 0,000 mm 0,7 UV-I 265 W/m -0,5 C 1,5 C 11,3 km/h (2 Bft) 95,74 %
26.02.2017 09:50 3,1 C 77 % 1018,9 hPa 0,0 l/m 4,9 km/h (1 Bft) S-SW 205 2 min 0,000 mm 0,7 UV-I 266 W/m -0,5 C 3,1 C 9,7 km/h (2 Bft) 95,74 %
26.02.2017 09:52 3,1 C 77 % 1018,9 hPa 0,0 l/m 4,4 km/h (1 Bft) SW 221 2 min 0,000 mm 0,7 UV-I 276 W/m -0,5 C 3,1 C 6,4 km/h (2 Bft) 100,00 %
26.02.2017 09:54 3,1 C 78 % 1018,9 hPa 0,0 l/m 5,1 km/h (1 Bft) S-SW 213 2 min 0,000 mm 0,7 UV-I 277 W/m -0,4 C 3,1 C 8,0 km/h (2 Bft) 94,44 %
26.02.2017 09:56 3,1 C 78 % 1018,9 hPa 0,0 l/m 3,1 km/h (1 Bft) S-SW 213 2 min 0,000 mm 0,7 UV-I 262 W/m -0,4 C 3,1 C 6,4 km/h (2 Bft) 100,00 %
26.02.2017 09:58 3,2 C 77 % 1018,9 hPa 0,0 l/m 4,3 km/h (1 Bft) S-SW 206 2 min 0,000 mm 0,7 UV-I 255 W/m -0,4 C 3,2 C 8,0 km/h (2 Bft) 94,00 %
26.02.2017 10:00 3,2 C 77 % 1018,9 hPa 0,0 l/m 3,8 km/h (1 Bft) SW 215 2 min 0,101 mm 0,7 UV-I 247 W/m -0,4 C 3,2 C 6,4 km/h (2 Bft) 97,87 %
26.02.2017 10:02 3,3 C 77 % 1018,9 hPa 0,0 l/m 4,7 km/h (1 Bft) W-SW 248 0 min 0,000 mm 0,7 UV-I 239 W/m -0,3 C 3,3 C 6,4 km/h (2 Bft) 100,00 %
26.02.2017 10:04 3,3 C 77 % 1018,9 hPa 0,0 l/m 4,0 km/h (1 Bft) SW 234 0 min 0,000 mm 0,7 UV-I 236 W/m -0,3 C 3,3 C 6,4 km/h (2 Bft) 100,00 %
26.02.2017 10:06 3,4 C 77 % 1019,0 hPa 0,0 l/m 3,7 km/h (1 Bft) W-SW 244 0 min 0,000 mm 0,7 UV-I 232 W/m -0,2 C 3,4 C 6,4 km/h (2 Bft) 96,08 %
26.02.2017 10:08 3,5 C 77 % 1019,0 hPa 0,0 l/m 4,5 km/h (1 Bft) W 263 0 min 0,000 mm 0,7 UV-I 230 W/m -0,1 C 3,5 C 6,4 km/h (2 Bft) 95,00 %
26.02.2017 10:10 3,6 C 76 % 1019,0 hPa 0,0 l/m 4,7 km/h (1 Bft) W 265 0 min 0,000 mm 0,7 UV-I 230 W/m -0,2 C 3,6 C 6,4 km/h (2 Bft) 97,87 %
26.02.2017 10:12 3,6 C 75 % 1019,0 hPa 0,0 l/m 4,1 km/h (1 Bft) W 261 0 min 0,000 mm 0,7 UV-I 234 W/m -0,4 C 3,6 C 6,4 km/h (2 Bft) 93,62 %
26.02.2017 10:14 3,7 C 75 % 1019,0 hPa 0,0 l/m 3,0 km/h (1 Bft) W-NW 282 0 min 0,000 mm 0,7 UV-I 237 W/m -0,3 C 3,7 C 4,8 km/h (1 Bft) 94,00 %
26.02.2017 10:16 3,7 C 75 % 1019,0 hPa 0,0 l/m 5,3 km/h (1 Bft) W-SW 257 0 min 0,000 mm 0,7 UV-I 234 W/m -0,3 C 3,7 C 6,4 km/h (2 Bft) 98,00 %
26.02.2017 10:18 3,7 C 74 % 1019,0 hPa 0,0 l/m 4,3 km/h (1 Bft) W-SW 244 0 min 0,000 mm 0,7 UV-I 229 W/m -0,5 C 3,7 C 8,0 km/h (2 Bft) 97,30 %
26.02.2017 10:20 3,8 C 75 % 1019,0 hPa 0,0 l/m 3,8 km/h (1 Bft) W-SW 247 0 min 0,000 mm 0,7 UV-I 218 W/m -0,2 C 3,8 C 4,8 km/h (1 Bft) 95,74 %
26.02.2017 10:22 3,9 C 75 % 1019,0 hPa 0,0 l/m 2,3 km/h (1 Bft) W-SW 247 0 min 0,000 mm 0,7 UV-I 210 W/m -0,1 C 3,9 C 4,8 km/h (1 Bft) 95,74 %
26.02.2017 10:24 3,9 C 75 % 1019,1 hPa 0,0 l/m 1,4 km/h (1 Bft) W-SW 247 0 min 0,000 mm 0,7 UV-I 204 W/m -0,1 C 3,9 C 4,8 km/h (1 Bft) 93,62 %
26.02.2017 10:26 4,0 C 75 % 1019,1 hPa 0,0 l/m 1,7 km/h (1 Bft) W-SW 247 0 min 0,000 mm 0,7 UV-I 206 W/m -0,0 C 4,0 C 3,2 km/h (1 Bft) 93,62 %
26.02.2017 10:28 4,1 C 76 % 1019,2 hPa 0,0 l/m 1,0 km/h (0 Bft) W-SW 247 0 min 0,000 mm 0,8 UV-I 210 W/m 0,3 C 4,1 C 3,2 km/h (1 Bft) 97,87 %
26.02.2017 10:30 4,0 C 73 % 1019,2 hPa 0,0 l/m 4,0 km/h (1 Bft) W 268 0 min 0,000 mm 0,8 UV-I 215 W/m -0,4 C 4,0 C 9,7 km/h (2 Bft) 93,75 %
26.02.2017 10:32 3,9 C 72 % 1019,2 hPa 0,0 l/m 5,4 km/h (1 Bft) W 259 0 min 0,000 mm 0,8 UV-I 221 W/m -0,7 C 3,9 C 9,7 km/h (2 Bft) 97,87 %
26.02.2017 10:36 3,9 C 73 % 1019,3 hPa 0,0 l/m 1,7 km/h (1 Bft) W 271 0 min 0,000 mm 0,8 UV-I 229 W/m -0,5 C 3,9 C 3,2 km/h (1 Bft) 96,67 %
26.02.2017 10:38 4,1 C 73 % 1019,2 hPa 0,0 l/m 1,5 km/h (1 Bft) W 262 0 min 0,000 mm 0,8 UV-I 230 W/m -0,3 C 4,1 C 4,8 km/h (1 Bft) 98,11 %
26.02.2017 10:40 4,1 C 72 % 1019,3 hPa 0,0 l/m 4,7 km/h (1 Bft) W-SW 240 0 min 0,000 mm 0,8 UV-I 229 W/m -0,5 C 4,1 C 6,4 km/h (2 Bft) 97,87 %
26.02.2017 10:42 4,1 C 72 % 1019,3 hPa 0,0 l/m 5,0 km/h (1 Bft) W 259 0 min 0,000 mm 0,8 UV-I 229 W/m -0,5 C 4,1 C 11,3 km/h (2 Bft) 98,00 %
26.02.2017 10:45 4,0 C 72 % 1019,4 hPa 0,0 l/m 4,8 km/h (1 Bft) W 270 0 min 0,000 mm 0,8 UV-I 229 W/m -0,6 C 4,0 C 11,3 km/h (2 Bft) 97,37 %
26.02.2017 10:50 4,1 C 73 % 1019,4 hPa 0,0 l/m 5,1 km/h (1 Bft) W-SW 246 0 min 0,000 mm 0,9 UV-I 229 W/m -0,3 C 4,1 C 8,0 km/h (2 Bft) 93,88 %
26.02.2017 10:52 4,2 C 73 % 1019,4 hPa 0,0 l/m 4,0 km/h (1 Bft) W-SW 246 0 min 0,000 mm 0,9 UV-I 231 W/m -0,2 C 4,2 C 6,4 km/h (2 Bft) 90,57 %
26.02.2017 10:54 4,3 C 73 % 1019,5 hPa 0,0 l/m 4,2 km/h (1 Bft) W-SW 255 0 min 0,000 mm 0,9 UV-I 234 W/m -0,1 C 4,3 C 6,4 km/h (2 Bft) 96,00 %
26.02.2017 10:56 4,4 C 73 % 1019,5 hPa 0,0 l/m 2,7 km/h (1 Bft) W 270 0 min 0,000 mm 0,9 UV-I 236 W/m -0,0 C 4,4 C 4,8 km/h (1 Bft) 100,00 %
26.02.2017 10:58 4,4 C 71 % 1019,5 hPa 0,0 l/m 4,4 km/h (1 Bft) W 270 0 min 0,000 mm 1,0 UV-I 243 W/m -0,4 C 4,4 C 6,4 km/h (2 Bft) 100,00 %
26.02.2017 11:00 4,5 C 72 % 1019,5 hPa 0,0 l/m 5,4 km/h (1 Bft) W 280 0 min 0,102 mm 1,0 UV-I 251 W/m -0,1 C 4,5 C 9,7 km/h (2 Bft) 100,00 %
26.02.2017 11:03 4,6 C 71 % 1019,5 hPa 0,0 l/m 7,1 km/h (2 Bft) W 270 0 min 0,000 mm 1,0 UV-I 262 W/m -0,2 C 4,0 C 11,3 km/h (2 Bft) 98,46 %
26.02.2017 11:04 4,6 C 71 % 1019,5 hPa 0,0 l/m 8,9 km/h (2 Bft) W 261 0 min 0,000 mm 1,0 UV-I 266 W/m -0,2 C 2,5 C 12,9 km/h (3 Bft) 91,67 %
26.02.2017 11:06 4,6 C 70 % 1019,5 hPa 0,0 l/m 7,0 km/h (2 Bft) W 280 0 min 0,000 mm 1,0 UV-I 270 W/m -0,4 C 4,1 C 11,3 km/h (2 Bft) 96,61 %
26.02.2017 11:08 4,6 C 70 % 1019,5 hPa 0,0 l/m 4,6 km/h (1 Bft) SW 225 0 min 0,000 mm 1,1 UV-I 276 W/m -0,4 C 4,6 C 8,0 km/h (2 Bft) 94,00 %
26.02.2017 11:10 4,7 C 70 % 1019,5 hPa 0,0 l/m 6,9 km/h (2 Bft) SW 224 0 min 0,000 mm 1,1 UV-I 270 W/m -0,3 C 4,3 C 9,7 km/h (2 Bft) 97,56 %
26.02.2017 11:12 4,7 C 70 % 1019,5 hPa 0,0 l/m 6,4 km/h (2 Bft) W 260 0 min 0,000 mm 1,1 UV-I 273 W/m -0,3 C 4,7 C 9,7 km/h (2 Bft) 100,00 %
26.02.2017 11:14 4,8 C 70 % 1019,5 hPa 0,0 l/m 5,4 km/h (1 Bft) W 269 0 min 0,000 mm 1,1 UV-I 272 W/m -0,2 C 4,8 C 9,7 km/h (2 Bft) 98,11 %
26.02.2017 11:16 4,8 C 70 % 1019,5 hPa 0,0 l/m 4,4 km/h (1 Bft) W-SW 254 0 min 0,000 mm 1,1 UV-I 279 W/m -0,2 C 4,8 C 6,4 km/h (2 Bft) 100,00 %
26.02.2017 11:18 4,9 C 70 % 1019,5 hPa 0,0 l/m 4,1 km/h (1 Bft) W 266 2 min 0,000 mm 1,1 UV-I 294 W/m -0,1 C 4,9 C 6,4 km/h (2 Bft) 97,87 %
26.02.2017 11:20 4,9 C 70 % 1019,5 hPa 0,0 l/m 3,5 km/h (1 Bft) W-SW 257 2 min 0,000 mm 1,1 UV-I 295 W/m -0,1 C 4,9 C 4,8 km/h (1 Bft) 86,84 %
26.02.2017 11:22 5,0 C 70 % 1019,5 hPa 0,0 l/m 3,3 km/h (1 Bft) W 259 0 min 0,000 mm 1,1 UV-I 292 W/m -0,0 C 5,0 C 6,4 km/h (2 Bft) 95,74 %
26.02.2017 11:24 5,1 C 69 % 1019,5 hPa 0,0 l/m 1,9 km/h (1 Bft) W-SW 257 0 min 0,000 mm 1,1 UV-I 286 W/m -0,1 C 5,1 C 4,8 km/h (1 Bft) 100,00 %
26.02.2017 11:26 5,1 C 68 % 1019,6 hPa 0,0 l/m 3,7 km/h (1 Bft) W-SW 258 0 min 0,000 mm 1,1 UV-I 280 W/m -0,3 C 5,1 C 6,4 km/h (2 Bft) 91,49 %
26.02.2017 11:28 5,2 C 68 % 1019,5 hPa 0,0 l/m 3,4 km/h (1 Bft) W 260 2 min 0,000 mm 1,1 UV-I 298 W/m -0,2 C 5,2 C 4,8 km/h (1 Bft) 98,00 %
26.02.2017 11:30 5,2 C 68 % 1019,5 hPa 0,0 l/m 1,3 km/h (1 Bft) W 260 2 min 0,000 mm 1,1 UV-I 304 W/m -0,2 C 5,2 C 3,2 km/h (1 Bft) 100,00 %
26.02.2017 11:32 5,3 C 71 % 1019,6 hPa 0,0 l/m 0,7 km/h (0 Bft) W 262 2 min 0,000 mm 1,1 UV-I 310 W/m 0,5 C 5,3 C 1,6 km/h (1 Bft) 96,88 %
26.02.2017 11:34 5,4 C 72 % 1019,5 hPa 0,0 l/m 1,3 km/h (1 Bft) W 263 0 min 0,000 mm 1,1 UV-I 296 W/m 0,8 C 5,4 C 3,2 km/h (1 Bft) 97,22 %
26.02.2017 11:36 5,5 C 72 % 1019,6 hPa 0,0 l/m 0,8 km/h (0 Bft) W 268 0 min 0,000 mm 1,1 UV-I 293 W/m 0,9 C 5,5 C 3,2 km/h (1 Bft) 98,15 %
26.02.2017 11:38 5,6 C 71 % 1019,5 hPa 0,0 l/m 1,7 km/h (1 Bft) W 271 0 min 0,000 mm 1,1 UV-I 276 W/m 0,8 C 5,6 C 3,2 km/h (1 Bft) 100,00 %
26.02.2017 11:40 5,6 C 71 % 1019,5 hPa 0,0 l/m 1,1 km/h (1 Bft) W-NW 284 0 min 0,000 mm 1,0 UV-I 264 W/m 0,8 C 5,6 C 3,2 km/h (1 Bft) 89,47 %
26.02.2017 11:43 5,4 C 71 % 1019,4 hPa 0,0 l/m 1,0 km/h (0 Bft) W-NW 290 0 min 0,000 mm 1,0 UV-I 250 W/m 0,6 C 5,4 C 3,2 km/h (1 Bft) 96,05 %
26.02.2017 11:44 5,4 C 71 % 1019,4 hPa 0,0 l/m 0,2 km/h (0 Bft) W-NW 290 0 min 0,000 mm 1,0 UV-I 243 W/m 0,6 C 5,4 C 1,6 km/h (1 Bft) 100,00 %
26.02.2017 11:46 5,4 C 70 % 1019,4 hPa 0,0 l/m 0,8 km/h (0 Bft) W-NW 290 0 min 0,000 mm 1,0 UV-I 239 W/m 0,4 C 5,4 C 1,6 km/h (1 Bft) 95,74 %
26.02.2017 11:49 5,3 C 70 % 1019,4 hPa 0,0 l/m 0,4 km/h (0 Bft) W-NW 290 0 min 0,000 mm 1,0 UV-I 238 W/m 0,3 C 5,3 C 1,6 km/h (1 Bft) 95,89 %
26.02.2017 11:50 5,4 C 71 % 1019,4 hPa 0,0 l/m 0,7 km/h (0 Bft) W-NW 290 0 min 0,000 mm 1,0 UV-I 241 W/m 0,6 C 5,4 C 1,6 km/h (1 Bft) 93,33 %
26.02.2017 11:52 5,4 C 70 % 1019,4 hPa 0,0 l/m 1,2 km/h (1 Bft) W-NW 290 0 min 0,000 mm 1,0 UV-I 243 W/m 0,4 C 5,4 C 3,2 km/h (1 Bft) 98,31 %
26.02.2017 11:54 5,5 C 71 % 1019,3 hPa 0,0 l/m 1,4 km/h (1 Bft) SW 226 0 min 0,000 mm 1,0 UV-I 244 W/m 0,7 C 5,5 C 4,8 km/h (1 Bft) 97,37 %
26.02.2017 11:56 5,6 C 69 % 1019,3 hPa 0,0 l/m 2,5 km/h (1 Bft) SW 226 0 min 0,000 mm 1,0 UV-I 242 W/m 0,4 C 5,6 C 4,8 km/h (1 Bft) 93,62 %
26.02.2017 11:58 5,7 C 68 % 1019,2 hPa 0,0 l/m 4,2 km/h (1 Bft) SW 234 0 min 0,000 mm 1,0 UV-I 236 W/m 0,3 C 5,7 C 8,0 km/h (2 Bft) 92,00 %
26.02.2017 12:00 5,8 C 67 % 1019,3 hPa 0,0 l/m 4,2 km/h (1 Bft) SW 229 0 min 0,000 mm 0,9 UV-I 229 W/m 0,2 C 5,8 C 6,4 km/h (2 Bft) 97,87 %
26.02.2017 12:02 5,8 C 67 % 1019,2 hPa 0,0 l/m 3,8 km/h (1 Bft) SW 229 0 min 0,127 mm 0,9 UV-I 222 W/m 0,2 C 5,8 C 4,8 km/h (1 Bft) 96,00 %
26.02.2017 12:04 5,7 C 67 % 1019,1 hPa 0,0 l/m 2,4 km/h (1 Bft) SW 229 0 min 0,000 mm 0,9 UV-I 221 W/m 0,1 C 5,7 C 4,8 km/h (1 Bft) 91,49 %
26.02.2017 12:06 5,7 C 68 % 1019,1 hPa 0,0 l/m 4,5 km/h (1 Bft) SW 232 0 min 0,000 mm 0,9 UV-I 222 W/m 0,3 C 5,7 C 6,4 km/h (2 Bft) 93,62 %
26.02.2017 12:09 5,8 C 68 % 1019,0 hPa 0,0 l/m 2,9 km/h (1 Bft) SW 232 0 min 0,000 mm 0,9 UV-I 230 W/m 0,4 C 5,8 C 4,8 km/h (1 Bft) 94,37 %
26.02.2017 12:10 5,8 C 68 % 1019,0 hPa 0,0 l/m 3,3 km/h (1 Bft) SW 232 0 min 0,000 mm 0,9 UV-I 230 W/m 0,4 C 5,8 C 6,4 km/h (2 Bft) 95,83 %
26.02.2017 12:12 5,8 C 68 % 1019,0 hPa 0,0 l/m 4,1 km/h (1 Bft) SW 232 0 min 0,000 mm 0,9 UV-I 229 W/m 0,4 C 5,8 C 6,4 km/h (2 Bft) 95,74 %
26.02.2017 12:14 5,9 C 69 % 1019,0 hPa 0,0 l/m 3,4 km/h (1 Bft) SW 232 0 min 0,000 mm 0,9 UV-I 230 W/m 0,7 C 5,9 C 4,8 km/h (1 Bft) 92,31 %
26.02.2017 12:16 5,9 C 69 % 1018,9 hPa 0,0 l/m 1,8 km/h (1 Bft) SW 232 0 min 0,000 mm 1,0 UV-I 231 W/m 0,7 C 5,9 C 4,8 km/h (1 Bft) 97,06 %
26.02.2017 12:18 5,9 C 69 % 1018,9 hPa 0,0 l/m 1,8 km/h (1 Bft) SW 232 0 min 0,000 mm 1,0 UV-I 232 W/m 0,7 C 5,9 C 3,2 km/h (1 Bft) 95,45 %
26.02.2017 12:20 5,8 C 69 % 1018,9 hPa 0,0 l/m 0,6 km/h (0 Bft) SW 232 0 min 0,000 mm 1,0 UV-I 228 W/m 0,6 C 5,8 C 1,6 km/h (1 Bft) 95,12 %
26.02.2017 12:22 5,7 C 69 % 1018,9 hPa 0,0 l/m 1,0 km/h (0 Bft) SW 232 0 min 0,000 mm 1,0 UV-I 223 W/m 0,5 C 5,7 C 3,2 km/h (1 Bft) 98,11 %
26.02.2017 12:24 5,7 C 70 % 1018,9 hPa 0,0 l/m 0,3 km/h (0 Bft) SW 232 0 min 0,000 mm 1,0 UV-I 220 W/m 0,7 C 5,7 C 1,6 km/h (1 Bft) 97,37 %
26.02.2017 12:26 5,8 C 72 % 1018,8 hPa 0,0 l/m 2,5 km/h (1 Bft) SW 232 0 min 0,000 mm 1,0 UV-I 223 W/m 1,2 C 5,8 C 4,8 km/h (1 Bft) 97,87 %
26.02.2017 12:28 6,0 C 70 % 1018,8 hPa 0,0 l/m 2,0 km/h (1 Bft) SW 232 0 min 0,000 mm 1,0 UV-I 228 W/m 1,0 C 6,0 C 4,8 km/h (1 Bft) 93,62 %
26.02.2017 12:30 6,2 C 69 % 1018,9 hPa 0,0 l/m 2,7 km/h (1 Bft) SW 232 0 min 0,000 mm 1,0 UV-I 230 W/m 0,9 C 6,2 C 4,8 km/h (1 Bft) 100,00 %
26.02.2017 12:32 6,2 C 68 % 1018,8 hPa 0,0 l/m 1,6 km/h (1 Bft) SW 232 0 min 0,000 mm 1,0 UV-I 231 W/m 0,7 C 6,2 C 3,2 km/h (1 Bft) 100,00 %
26.02.2017 12:34 6,3 C 68 % 1018,8 hPa 0,0 l/m 0,0 km/h (0 Bft) SW 232 0 min 0,000 mm 1,0 UV-I 234 W/m 0,8 C 6,3 C 0,0 km/h (0 Bft) 100,00 %
26.02.2017 12:36 6,3 C 67 % 1018,8 hPa 0,0 l/m 0,4 km/h (0 Bft) SW 232 0 min 0,000 mm 1,0 UV-I 238 W/m 0,6 C 6,3 C 1,6 km/h (1 Bft) 95,74 %
26.02.2017 12:38 6,4 C 68 % 1018,8 hPa 0,0 l/m 0,9 km/h (0 Bft) SW 232 0 min 0,000 mm 1,0 UV-I 238 W/m 0,9 C 6,4 C 3,2 km/h (1 Bft) 100,00 %
26.02.2017 12:40 6,4 C 67 % 1018,7 hPa 0,0 l/m 1,3 km/h (1 Bft) SW 232 0 min 0,000 mm 1,0 UV-I 239 W/m 0,7 C 6,4 C 3,2 km/h (1 Bft) 100,00 %
26.02.2017 12:42 6,4 C 67 % 1018,6 hPa 0,0 l/m 0,5 km/h (0 Bft) SW 232 0 min 0,000 mm 1,0 UV-I 240 W/m 0,7 C 6,4 C 1,6 km/h (1 Bft) 100,00 %
26.02.2017 12:44 6,4 C 66 % 1018,6 hPa 0,0 l/m 0,1 km/h (0 Bft) SW 232 0 min 0,000 mm 1,1 UV-I 244 W/m 0,5 C 6,4 C 1,6 km/h (1 Bft) 95,74 %
26.02.2017 12:46 6,5 C 67 % 1018,6 hPa 0,0 l/m 1,3 km/h (1 Bft) SW 233 0 min 0,000 mm 1,1 UV-I 251 W/m 0,8 C 6,5 C 3,2 km/h (1 Bft) 98,00 %
26.02.2017 12:48 6,5 C 67 % 1018,5 hPa 0,0 l/m 0,5 km/h (0 Bft) SW 233 0 min 0,000 mm 1,1 UV-I 258 W/m 0,8 C 6,5 C 1,6 km/h (1 Bft) 98,00 %
26.02.2017 12:50 6,6 C 67 % 1018,4 hPa 0,0 l/m 0,6 km/h (0 Bft) SW 234 0 min 0,000 mm 1,1 UV-I 261 W/m 0,9 C 6,6 C 3,2 km/h (1 Bft) 100,00 %
26.02.2017 12:52 6,6 C 67 % 1018,4 hPa 0,0 l/m 0,2 km/h (0 Bft) SW 233 0 min 0,000 mm 1,1 UV-I 267 W/m 0,9 C 6,6 C 1,6 km/h (1 Bft) 100,00 %
26.02.2017 12:54 6,6 C 67 % 1018,3 hPa 0,0 l/m 0,8 km/h (0 Bft) SW 234 0 min 0,000 mm 1,2 UV-I 276 W/m 0,9 C 6,6 C 3,2 km/h (1 Bft) 100,00 %
26.02.2017 12:56 6,7 C 70 % 1018,3 hPa 0,0 l/m 0,5 km/h (0 Bft) SW 234 0 min 0,000 mm 1,2 UV-I 274 W/m 1,6 C 6,7 C 3,2 km/h (1 Bft) 96,23 %
26.02.2017 12:58 6,7 C 67 % 1018,2 hPa 0,0 l/m 2,1 km/h (1 Bft) SW 234 0 min 0,000 mm 1,2 UV-I 269 W/m 1,0 C 6,7 C 3,2 km/h (1 Bft) 100,00 %
26.02.2017 13:00 6,6 C 68 % 1018,2 hPa 0,0 l/m 0,8 km/h (0 Bft) SW 234 0 min 0,101 mm 1,2 UV-I 265 W/m 1,1 C 6,6 C 3,2 km/h (1 Bft) 97,37 %
26.02.2017 13:02 6,7 C 68 % 1018,1 hPa 0,0 l/m 0,1 km/h (0 Bft) SW 234 0 min 0,000 mm 1,2 UV-I 272 W/m 1,2 C 6,7 C 1,6 km/h (1 Bft) 100,00 %
26.02.2017 13:04 6,7 C 67 % 1018,1 hPa 0,0 l/m 1,1 km/h (1 Bft) SW 234 2 min 0,000 mm 1,3 UV-I 317 W/m 1,0 C 6,7 C 1,6 km/h (1 Bft) 100,00 %
26.02.2017 13:06 6,7 C 66 % 1018,1 hPa 0,0 l/m 0,5 km/h (0 Bft) SW 234 2 min 0,000 mm 1,4 UV-I 378 W/m 0,8 C 6,7 C 1,6 km/h (1 Bft) 97,87 %
26.02.2017 13:08 6,8 C 67 % 1018,1 hPa 0,0 l/m 0,5 km/h (0 Bft) SW 234 2 min 0,000 mm 1,3 UV-I 352 W/m 1,1 C 6,8 C 1,6 km/h (1 Bft) 100,00 %
26.02.2017 13:10 7,1 C 68 % 1018,1 hPa 0,0 l/m 0,1 km/h (0 Bft) SW 234 2 min 0,000 mm 1,3 UV-I 329 W/m 1,6 C 7,1 C 1,6 km/h (1 Bft) 100,00 %
26.02.2017 13:12 7,2 C 66 % 1018,1 hPa 0,0 l/m 1,8 km/h (1 Bft) W 277 2 min 0,000 mm 1,3 UV-I 352 W/m 1,3 C 7,2 C 4,8 km/h (1 Bft) 100,00 %
26.02.2017 13:14 7,2 C 64 % 1018,0 hPa 0,0 l/m 1,9 km/h (1 Bft) W 280 2 min 0,000 mm 1,3 UV-I 367 W/m 0,9 C 7,2 C 4,8 km/h (1 Bft) 100,00 %
26.02.2017 13:16 7,3 C 65 % 1018,0 hPa 0,0 l/m 1,2 km/h (1 Bft) W 281 2 min 0,000 mm 1,3 UV-I 324 W/m 1,2 C 7,3 C 4,8 km/h (1 Bft) 97,87 %
26.02.2017 13:18 7,3 C 63 % 1018,0 hPa 0,0 l/m 1,1 km/h (1 Bft) W 281 0 min 0,000 mm 1,1 UV-I 278 W/m 0,7 C 7,3 C 3,2 km/h (1 Bft) 93,62 %
26.02.2017 13:20 7,2 C 63 % 1017,9 hPa 0,0 l/m 0,0 km/h (0 Bft) W 281 0 min 0,000 mm 1,1 UV-I 258 W/m 0,6 C 7,2 C 1,6 km/h (1 Bft) 97,87 %
26.02.2017 13:22 7,2 C 63 % 1018,0 hPa 0,0 l/m 0,6 km/h (0 Bft) W 281 0 min 0,000 mm 1,0 UV-I 253 W/m 0,6 C 7,2 C 1,6 km/h (1 Bft) 97,87 %
26.02.2017 13:24 7,3 C 64 % 1017,9 hPa 0,0 l/m 1,6 km/h (1 Bft) W-NW 287 0 min 0,000 mm 1,1 UV-I 261 W/m 1,0 C 7,3 C 4,8 km/h (1 Bft) 100,00 %
26.02.2017 13:26 7,3 C 66 % 1017,9 hPa 0,0 l/m 1,4 km/h (1 Bft) N-NW 327 0 min 0,000 mm 1,1 UV-I 268 W/m 1,4 C 7,3 C 3,2 km/h (1 Bft) 98,11 %
26.02.2017 13:28 7,4 C 67 % 1017,8 hPa 0,0 l/m 1,2 km/h (1 Bft) N-NW 328 0 min 0,000 mm 1,1 UV-I 270 W/m 1,7 C 7,4 C 3,2 km/h (1 Bft) 94,00 %
26.02.2017 13:30 7,4 C 67 % 1017,8 hPa 0,0 l/m 0,8 km/h (0 Bft) N-NW 338 0 min 0,000 mm 1,1 UV-I 273 W/m 1,7 C 7,4 C 4,8 km/h (1 Bft) 100,00 %
26.02.2017 13:32 7,4 C 68 % 1017,8 hPa 0,0 l/m 1,2 km/h (1 Bft) N-NW 340 0 min 0,000 mm 1,0 UV-I 270 W/m 1,9 C 7,4 C 3,2 km/h (1 Bft) 96,43 %
26.02.2017 13:34 7,4 C 65 % 1017,9 hPa 0,0 l/m 0,9 km/h (0 Bft) N-NW 338 0 min 0,000 mm 1,0 UV-I 261 W/m 1,3 C 7,4 C 1,6 km/h (1 Bft) 100,00 %
26.02.2017 13:36 7,4 C 66 % 1017,8 hPa 0,0 l/m 1,6 km/h (1 Bft) N-NW 340 0 min 0,000 mm 0,9 UV-I 248 W/m 1,5 C 7,4 C 4,8 km/h (1 Bft) 97,14 %
26.02.2017 13:38 7,6 C 65 % 1017,7 hPa 0,0 l/m 3,8 km/h (1 Bft) N-NO 20 0 min 0,000 mm 0,9 UV-I 235 W/m 1,5 C 7,6 C 6,4 km/h (2 Bft) 96,00 %
26.02.2017 13:40 7,6 C 64 % 1017,7 hPa 0,0 l/m 0,1 km/h (0 Bft) N-NO 20 0 min 0,000 mm 0,9 UV-I 225 W/m 1,2 C 7,6 C 1,6 km/h (1 Bft) 100,00 %
26.02.2017 13:42 7,6 C 66 % 1017,6 hPa 0,0 l/m 0,4 km/h (0 Bft) N 11 0 min 0,000 mm 0,8 UV-I 217 W/m 1,7 C 7,6 C 3,2 km/h (1 Bft) 100,00 %
26.02.2017 13:44 7,6 C 66 % 1017,6 hPa 0,0 l/m 1,4 km/h (1 Bft) N-NO 21 0 min 0,000 mm 0,8 UV-I 211 W/m 1,7 C 7,6 C 4,8 km/h (1 Bft) 95,83 %
26.02.2017 13:46 7,6 C 67 % 1017,5 hPa 0,0 l/m 4,0 km/h (1 Bft) N-NO 28 0 min 0,000 mm 0,8 UV-I 205 W/m 1,9 C 7,6 C 6,4 km/h (2 Bft) 97,37 %
26.02.2017 13:48 7,7 C 69 % 1017,4 hPa 0,0 l/m 3,7 km/h (1 Bft) N-NO 18 0 min 0,000 mm 0,8 UV-I 200 W/m 2,4 C 7,7 C 6,4 km/h (2 Bft) 100,00 %
26.02.2017 13:50 7,6 C 66 % 1017,5 hPa 0,0 l/m 3,5 km/h (1 Bft) N-NO 25 0 min 0,000 mm 0,8 UV-I 194 W/m 1,7 C 7,6 C 6,4 km/h (2 Bft) 100,00 %
26.02.2017 13:52 7,5 C 68 % 1017,6 hPa 0,0 l/m 1,7 km/h (1 Bft) N-NO 22 0 min 0,000 mm 0,7 UV-I 186 W/m 2,0 C 7,5 C 4,8 km/h (1 Bft) 92,68 %
26.02.2017 13:54 7,5 C 68 % 1017,6 hPa 0,0 l/m 0,9 km/h (0 Bft) NW 319 0 min 0,000 mm 0,7 UV-I 183 W/m 2,0 C 7,5 C 3,2 km/h (1 Bft) 97,87 %
26.02.2017 13:56 7,4 C 68 % 1017,7 hPa 0,0 l/m 1,2 km/h (1 Bft) N-NW 342 0 min 0,000 mm 0,7 UV-I 187 W/m 1,9 C 7,4 C 3,2 km/h (1 Bft) 100,00 %
26.02.2017 13:58 7,3 C 69 % 1017,7 hPa 0,0 l/m 1,7 km/h (1 Bft) N 11 0 min 0,000 mm 0,8 UV-I 194 W/m 2,0 C 7,3 C 4,8 km/h (1 Bft) 98,11 %
26.02.2017 14:00 7,2 C 69 % 1017,6 hPa 0,0 l/m 2,4 km/h (1 Bft) N 355 0 min 0,127 mm 0,8 UV-I 202 W/m 1,9 C 7,2 C 6,4 km/h (2 Bft) 92,68 %
26.02.2017 14:02 7,3 C 70 % 1017,7 hPa 0,0 l/m 2,0 km/h (1 Bft) N-NO 12 0 min 0,000 mm 0,8 UV-I 207 W/m 2,2 C 7,3 C 4,8 km/h (1 Bft) 100,00 %
26.02.2017 14:04 7,3 C 70 % 1017,7 hPa 0,0 l/m 2,7 km/h (1 Bft) N 11 0 min 0,000 mm 0,8 UV-I 211 W/m 2,2 C 7,3 C 4,8 km/h (1 Bft) 97,56 %
26.02.2017 14:06 7,3 C 69 % 1017,7 hPa 0,0 l/m 2,6 km/h (1 Bft) N-NO 20 0 min 0,000 mm 0,8 UV-I 215 W/m 2,0 C 7,3 C 4,8 km/h (1 Bft) 97,87 %
26.02.2017 14:08 7,3 C 69 % 1017,6 hPa 0,0 l/m 7,0 km/h (2 Bft) N 355 0 min 0,000 mm 0,8 UV-I 220 W/m 2,0 C 6,8 C 11,3 km/h (2 Bft) 91,67 %
26.02.2017 14:10 7,3 C 70 % 1017,6 hPa 0,0 l/m 4,1 km/h (1 Bft) N-NO 23 0 min 0,000 mm 0,8 UV-I 210 W/m 2,2 C 7,3 C 8,0 km/h (2 Bft) 96,00 %
26.02.2017 14:12 7,3 C 68 % 1017,6 hPa 0,0 l/m 7,2 km/h (2 Bft) N-NO 27 0 min 0,000 mm 0,7 UV-I 206 W/m 1,8 C 6,7 C 9,7 km/h (2 Bft) 98,08 %
26.02.2017 14:14 7,3 C 69 % 1017,5 hPa 0,0 l/m 7,8 km/h (2 Bft) O-NO 57 0 min 0,000 mm 0,7 UV-I 202 W/m 2,0 C 6,2 C 11,3 km/h (2 Bft) 94,87 %
26.02.2017 14:16 7,3 C 67 % 1017,4 hPa 0,0 l/m 6,8 km/h (2 Bft) NO 38 0 min 0,000 mm 0,7 UV-I 200 W/m 1,6 C 7,0 C 11,3 km/h (2 Bft) 95,74 %
26.02.2017 14:18 7,3 C 67 % 1017,4 hPa 0,0 l/m 6,1 km/h (2 Bft) NO 36 0 min 0,000 mm 0,7 UV-I 200 W/m 1,6 C 7,3 C 8,0 km/h (2 Bft) 97,87 %
26.02.2017 14:20 7,4 C 68 % 1017,5 hPa 0,0 l/m 5,1 km/h (1 Bft) N-NO 21 0 min 0,000 mm 0,7 UV-I 200 W/m 1,9 C 7,4 C 8,0 km/h (2 Bft) 97,87 %
26.02.2017 14:22 7,3 C 69 % 1017,5 hPa 0,0 l/m 5,6 km/h (1 Bft) N-NO 21 0 min 0,000 mm 0,7 UV-I 200 W/m 2,0 C 7,3 C 9,7 km/h (2 Bft) 93,62 %
26.02.2017 14:24 7,3 C 69 % 1017,5 hPa 0,0 l/m 6,5 km/h (2 Bft) N-NO 28 0 min 0,000 mm 0,7 UV-I 204 W/m 2,0 C 7,2 C 8,0 km/h (2 Bft) 96,00 %
26.02.2017 14:26 7,3 C 67 % 1017,4 hPa 0,0 l/m 5,4 km/h (1 Bft) NO 36 0 min 0,000 mm 0,7 UV-I 206 W/m 1,6 C 7,3 C 8,0 km/h (2 Bft) 95,74 %
26.02.2017 14:28 7,3 C 68 % 1017,4 hPa 0,0 l/m 4,8 km/h (1 Bft) NO 35 0 min 0,000 mm 0,7 UV-I 209 W/m 1,8 C 7,3 C 8,0 km/h (2 Bft) 96,00 %
26.02.2017 14:30 7,3 C 67 % 1017,4 hPa 0,0 l/m 5,7 km/h (1 Bft) N-NO 20 0 min 0,000 mm 0,7 UV-I 211 W/m 1,6 C 7,3 C 8,0 km/h (2 Bft) 97,87 %
26.02.2017 14:32 7,3 C 69 % 1017,4 hPa 0,0 l/m 4,9 km/h (1 Bft) N-NO 30 0 min 0,000 mm 0,7 UV-I 211 W/m 2,0 C 7,3 C 8,0 km/h (2 Bft) 97,37 %
26.02.2017 14:34 7,3 C 66 % 1017,4 hPa 0,0 l/m 4,2 km/h (1 Bft) N-NO 29 0 min 0,000 mm 0,7 UV-I 210 W/m 1,4 C 7,3 C 8,0 km/h (2 Bft) 94,34 %
26.02.2017 14:36 7,3 C 68 % 1017,4 hPa 0,0 l/m 4,7 km/h (1 Bft) NO 44 0 min 0,000 mm 0,7 UV-I 207 W/m 1,8 C 7,3 C 8,0 km/h (2 Bft) 96,00 %
26.02.2017 14:38 7,4 C 65 % 1017,4 hPa 0,0 l/m 5,0 km/h (1 Bft) NO 42 0 min 0,000 mm 0,7 UV-I 205 W/m 1,3 C 7,4 C 6,4 km/h (2 Bft) 97,87 %
26.02.2017 14:40 7,4 C 68 % 1017,4 hPa 0,0 l/m 4,2 km/h (1 Bft) N-NO 32 0 min 0,000 mm 0,6 UV-I 198 W/m 1,9 C 7,4 C 8,0 km/h (2 Bft) 100,00 %
26.02.2017 14:42 7,4 C 69 % 1017,3 hPa 0,0 l/m 1,9 km/h (1 Bft) N-NO 32 0 min 0,000 mm 0,6 UV-I 192 W/m 2,1 C 7,4 C 6,4 km/h (2 Bft) 95,74 %
26.02.2017 14:44 7,4 C 69 % 1017,3 hPa 0,0 l/m 2,6 km/h (1 Bft) N-NO 28 0 min 0,000 mm 0,6 UV-I 187 W/m 2,1 C 7,4 C 6,4 km/h (2 Bft) 95,74 %
26.02.2017 14:46 7,4 C 67 % 1017,2 hPa 0,0 l/m 4,5 km/h (1 Bft) N-NO 28 0 min 0,000 mm 0,6 UV-I 186 W/m 1,7 C 7,4 C 6,4 km/h (2 Bft) 97,87 %
26.02.2017 14:48 7,4 C 67 % 1017,2 hPa 0,0 l/m 4,5 km/h (1 Bft) NO 49 0 min 0,000 mm 0,6 UV-I 184 W/m 1,7 C 7,4 C 6,4 km/h (2 Bft) 100,00 %
26.02.2017 14:50 7,4 C 68 % 1017,2 hPa 0,0 l/m 4,7 km/h (1 Bft) NO 44 0 min 0,000 mm 0,6 UV-I 186 W/m 1,9 C 7,4 C 6,4 km/h (2 Bft) 98,00 %
26.02.2017 14:52 7,4 C 65 % 1017,2 hPa 0,0 l/m 4,2 km/h (1 Bft) NO 56 0 min 0,000 mm 0,6 UV-I 185 W/m 1,3 C 7,4 C 6,4 km/h (2 Bft) 95,74 %
26.02.2017 14:54 7,4 C 66 % 1017,2 hPa 0,0 l/m 4,8 km/h (1 Bft) NO 56 0 min 0,000 mm 0,6 UV-I 186 W/m 1,5 C 7,4 C 8,0 km/h (2 Bft) 100,00 %
26.02.2017 14:56 7,4 C 65 % 1017,2 hPa 0,0 l/m 4,3 km/h (1 Bft) NO 56 0 min 0,000 mm 0,5 UV-I 183 W/m 1,3 C 7,4 C 6,4 km/h (2 Bft) 93,62 %
26.02.2017 14:58 7,4 C 66 % 1017,2 hPa 0,0 l/m 5,4 km/h (1 Bft) O-NO 61 0 min 0,000 mm 0,5 UV-I 178 W/m 1,5 C 7,4 C 8,0 km/h (2 Bft) 97,56 %
26.02.2017 15:00 7,4 C 66 % 1017,2 hPa 0,0 l/m 4,5 km/h (1 Bft) O-NO 61 0 min 0,102 mm 0,5 UV-I 174 W/m 1,5 C 7,4 C 6,4 km/h (2 Bft) 95,74 %
26.02.2017 15:02 7,4 C 66 % 1017,3 hPa 0,0 l/m 2,9 km/h (1 Bft) NO 55 0 min 0,000 mm 0,5 UV-I 169 W/m 1,5 C 7,4 C 4,8 km/h (1 Bft) 95,74 %
26.02.2017 15:04 7,5 C 69 % 1017,3 hPa 0,0 l/m 6,0 km/h (2 Bft) N-NO 22 0 min 0,000 mm 0,5 UV-I 165 W/m 2,2 C 7,5 C 8,0 km/h (2 Bft) 95,74 %
26.02.2017 15:06 7,4 C 69 % 1017,3 hPa 0,0 l/m 5,7 km/h (1 Bft) N-NO 26 0 min 0,000 mm 0,5 UV-I 163 W/m 2,1 C 7,4 C 8,0 km/h (2 Bft) 98,00 %
26.02.2017 15:08 7,4 C 69 % 1017,3 hPa 0,0 l/m 5,2 km/h (1 Bft) N-NO 22 0 min 0,000 mm 0,5 UV-I 161 W/m 2,1 C 7,4 C 8,0 km/h (2 Bft) 97,73 %
26.02.2017 15:10 7,4 C 70 % 1017,4 hPa 0,0 l/m 4,5 km/h (1 Bft) N-NO 22 0 min 0,000 mm 0,5 UV-I 159 W/m 2,3 C 7,4 C 6,4 km/h (2 Bft) 100,00 %
26.02.2017 15:12 7,3 C 69 % 1017,3 hPa 0,0 l/m 4,6 km/h (1 Bft) N-NO 22 0 min 0,000 mm 0,3 UV-I 157 W/m 2,0 C 7,3 C 6,4 km/h (2 Bft) 97,87 %
26.02.2017 15:14 7,3 C 70 % 1017,3 hPa 0,0 l/m 5,9 km/h (2 Bft) O-NO 74 0 min 0,000 mm 0,0 UV-I 154 W/m 2,2 C 7,3 C 8,0 km/h (2 Bft) 95,74 %
26.02.2017 15:16 7,4 C 70 % 1017,3 hPa 0,0 l/m 5,8 km/h (2 Bft) NO 39 0 min 0,000 mm 0,0 UV-I 152 W/m 2,3 C 7,4 C 8,0 km/h (2 Bft) 95,83 %
26.02.2017 15:18 7,4 C 70 % 1017,3 hPa 0,0 l/m 2,8 km/h (1 Bft) NO 38 0 min 0,000 mm 0,0 UV-I 149 W/m 2,3 C 7,4 C 6,4 km/h (2 Bft) 100,00 %
26.02.2017 15:20 7,3 C 67 % 1017,3 hPa 0,0 l/m 1,4 km/h (1 Bft) NO 38 0 min 0,000 mm 0,0 UV-I 145 W/m 1,6 C 7,3 C 4,8 km/h (1 Bft) 95,74 %
26.02.2017 15:22 7,3 C 68 % 1017,2 hPa 0,0 l/m 4,0 km/h (1 Bft) O-NO 59 0 min 0,000 mm 0,0 UV-I 141 W/m 1,8 C 7,3 C 6,4 km/h (2 Bft) 100,00 %
26.02.2017 15:24 7,3 C 67 % 1017,2 hPa 0,0 l/m 4,0 km/h (1 Bft) NO 55 0 min 0,000 mm 0,0 UV-I 136 W/m 1,6 C 7,3 C 6,4 km/h (2 Bft) 97,87 %
26.02.2017 15:26 7,4 C 68 % 1017,2 hPa 0,0 l/m 4,4 km/h (1 Bft) O-NO 57 0 min 0,000 mm 0,0 UV-I 130 W/m 1,9 C 7,4 C 6,4 km/h (2 Bft) 93,62 %
26.02.2017 15:28 7,4 C 69 % 1017,2 hPa 0,0 l/m 6,4 km/h (2 Bft) NO 45 0 min 0,000 mm 0,0 UV-I 124 W/m 2,1 C 7,4 C 8,0 km/h (2 Bft) 97,87 %
26.02.2017 15:30 7,4 C 69 % 1017,2 hPa 0,0 l/m 8,1 km/h (2 Bft) O-NO 65 0 min 0,000 mm 0,0 UV-I 119 W/m 2,1 C 6,0 C 9,7 km/h (2 Bft) 97,87 %
26.02.2017 15:32 7,3 C 69 % 1017,1 hPa 0,0 l/m 6,3 km/h (2 Bft) NO 44 0 min 0,000 mm 0,0 UV-I 115 W/m 2,0 C 7,3 C 9,7 km/h (2 Bft) 100,00 %
26.02.2017 15:34 7,3 C 67 % 1017,1 hPa 0,0 l/m 5,3 km/h (1 Bft) O-NO 67 0 min 0,000 mm 0,0 UV-I 111 W/m 1,6 C 7,3 C 8,0 km/h (2 Bft) 95,74 %
26.02.2017 15:36 7,3 C 68 % 1017,1 hPa 0,0 l/m 5,5 km/h (1 Bft) NO 46 0 min 0,000 mm 0,0 UV-I 105 W/m 1,8 C 7,3 C 8,0 km/h (2 Bft) 98,00 %
26.02.2017 15:38 7,3 C 70 % 1017,2 hPa 0,0 l/m 5,8 km/h (2 Bft) NO 45 0 min 0,000 mm 0,0 UV-I 100 W/m 2,2 C 7,3 C 8,0 km/h (2 Bft) 97,87 %
26.02.2017 15:40 7,2 C 70 % 1017,2 hPa 0,0 l/m 7,0 km/h (2 Bft) N-NO 13 0 min 0,000 mm 0,0 UV-I 96 W/m 2,1 C 6,7 C 9,7 km/h (2 Bft) 94,00 %
26.02.2017 15:42 7,2 C 72 % 1017,2 hPa 0,0 l/m 5,1 km/h (1 Bft) N-NO 28 0 min 0,000 mm 0,0 UV-I 92 W/m 2,5 C 7,2 C 6,4 km/h (2 Bft) 95,45 %
26.02.2017 15:44 7,2 C 71 % 1017,2 hPa 0,0 l/m 4,3 km/h (1 Bft) N-NO 26 0 min 0,000 mm 0,0 UV-I 87 W/m 2,3 C 7,2 C 6,4 km/h (2 Bft) 100,00 %
26.02.2017 15:46 7,1 C 71 % 1017,2 hPa 0,0 l/m 3,7 km/h (1 Bft) N-NO 30 0 min 0,000 mm 0,0 UV-I 83 W/m 2,2 C 7,1 C 8,0 km/h (2 Bft) 91,49 %
26.02.2017 15:48 7,1 C 71 % 1017,2 hPa 0,0 l/m 4,3 km/h (1 Bft) N-NO 28 0 min 0,000 mm 0,0 UV-I 80 W/m 2,2 C 7,1 C 6,4 km/h (2 Bft) 94,87 %
26.02.2017 15:50 7,1 C 71 % 1017,1 hPa 0,0 l/m 4,6 km/h (1 Bft) N-NO 26 0 min 0,000 mm 0,0 UV-I 79 W/m 2,2 C 7,1 C 8,0 km/h (2 Bft) 97,87 %
26.02.2017 15:52 7,1 C 71 % 1017,1 hPa 0,0 l/m 4,9 km/h (1 Bft) NO 43 0 min 0,000 mm 0,0 UV-I 77 W/m 2,2 C 7,1 C 8,0 km/h (2 Bft) 93,62 %
26.02.2017 15:54 7,1 C 70 % 1017,1 hPa 0,0 l/m 3,3 km/h (1 Bft) NO 43 0 min 0,000 mm 0,0 UV-I 77 W/m 2,0 C 7,1 C 4,8 km/h (1 Bft) 94,34 %
26.02.2017 15:56 7,1 C 71 % 1017,1 hPa 0,0 l/m 4,2 km/h (1 Bft) NO 37 0 min 0,000 mm 0,0 UV-I 77 W/m 2,2 C 7,1 C 6,4 km/h (2 Bft) 97,56 %
26.02.2017 15:58 7,2 C 71 % 1017,1 hPa 0,0 l/m 3,3 km/h (1 Bft) NO 37 0 min 0,000 mm 0,0 UV-I 76 W/m 2,3 C 7,2 C 4,8 km/h (1 Bft) 97,87 %
26.02.2017 16:00 7,2 C 70 % 1017,1 hPa 0,0 l/m 4,9 km/h (1 Bft) O-NO 67 0 min 0,000 mm 0,0 UV-I 75 W/m 2,1 C 7,2 C 6,4 km/h (2 Bft) 98,04 %
26.02.2017 16:02 7,2 C 71 % 1017,1 hPa 0,0 l/m 5,2 km/h (1 Bft) O-NO 75 0 min 0,076 mm 0,0 UV-I 74 W/m 2,3 C 7,2 C 8,0 km/h (2 Bft) 91,84 %
26.02.2017 16:04 7,1 C 69 % 1017,1 hPa 0,0 l/m 4,6 km/h (1 Bft) O 80 0 min 0,000 mm 0,0 UV-I 74 W/m 1,8 C 7,1 C 6,4 km/h (2 Bft) 100,00 %
26.02.2017 16:06 7,1 C 70 % 1017,0 hPa 0,0 l/m 3,6 km/h (1 Bft) O 80 0 min 0,000 mm 0,0 UV-I 73 W/m 2,0 C 7,1 C 4,8 km/h (1 Bft) 97,87 %
26.02.2017 16:08 7,1 C 71 % 1017,1 hPa 0,0 l/m 4,0 km/h (1 Bft) O-NO 71 0 min 0,000 mm 0,0 UV-I 72 W/m 2,2 C 7,1 C 6,4 km/h (2 Bft) 97,87 %
26.02.2017 16:10 7,1 C 71 % 1017,0 hPa 0,0 l/m 4,8 km/h (1 Bft) O-NO 74 0 min 0,000 mm 0,0 UV-I 69 W/m 2,2 C 7,1 C 6,4 km/h (2 Bft) 93,62 %
26.02.2017 16:12 7,1 C 70 % 1017,0 hPa 0,0 l/m 4,6 km/h (1 Bft) O-NO 77 0 min 0,000 mm 0,0 UV-I 66 W/m 2,0 C 7,1 C 6,4 km/h (2 Bft) 97,87 %
26.02.2017 16:14 7,0 C 71 % 1016,9 hPa 0,0 l/m 3,5 km/h (1 Bft) O-NO 76 0 min 0,000 mm 0,0 UV-I 62 W/m 2,1 C 7,0 C 6,4 km/h (2 Bft) 93,62 %
26.02.2017 16:16 7,0 C 71 % 1017,0 hPa 0,0 l/m 2,7 km/h (1 Bft) O-NO 76 0 min 0,000 mm 0,0 UV-I 59 W/m 2,1 C 7,0 C 4,8 km/h (1 Bft) 93,62 %
26.02.2017 16:18 7,0 C 70 % 1017,0 hPa 0,0 l/m 5,2 km/h (1 Bft) O-NO 77 0 min 0,000 mm 0,0 UV-I 56 W/m 1,9 C 7,0 C 8,0 km/h (2 Bft) 97,87 %
26.02.2017 16:20 6,9 C 71 % 1017,0 hPa 0,0 l/m 3,6 km/h (1 Bft) O-NO 77 0 min 0,000 mm 0,0 UV-I 54 W/m 2,0 C 6,9 C 4,8 km/h (1 Bft) 95,74 %
26.02.2017 16:22 6,9 C 70 % 1016,9 hPa 0,0 l/m 6,0 km/h (2 Bft) O 100 0 min 0,000 mm 0,0 UV-I 54 W/m 1,8 C 6,9 C 9,7 km/h (2 Bft) 89,36 %
26.02.2017 16:24 6,9 C 71 % 1016,9 hPa 0,0 l/m 5,1 km/h (1 Bft) O 97 0 min 0,000 mm 0,0 UV-I 56 W/m 2,0 C 6,9 C 9,7 km/h (2 Bft) 97,87 %
26.02.2017 16:26 6,9 C 70 % 1017,0 hPa 0,0 l/m 4,0 km/h (1 Bft) O 98 0 min 0,000 mm 0,0 UV-I 58 W/m 1,8 C 6,9 C 6,4 km/h (2 Bft) 93,62 %
26.02.2017 16:28 6,9 C 71 % 1016,9 hPa 0,0 l/m 3,4 km/h (1 Bft) O 88 0 min 0,000 mm 0,0 UV-I 58 W/m 2,0 C 6,9 C 4,8 km/h (1 Bft) 93,62 %
26.02.2017 16:30 6,9 C 71 % 1016,9 hPa 0,0 l/m 3,6 km/h (1 Bft) O 88 0 min 0,000 mm 0,0 UV-I 57 W/m 2,0 C 6,9 C 4,8 km/h (1 Bft) 95,74 %
26.02.2017 16:32 6,9 C 71 % 1016,9 hPa 0,0 l/m 2,8 km/h (1 Bft) O 88 0 min 0,000 mm 0,0 UV-I 54 W/m 2,0 C 6,9 C 4,8 km/h (1 Bft) 95,74 %
26.02.2017 16:34 6,9 C 71 % 1016,9 hPa 0,0 l/m 4,3 km/h (1 Bft) O 90 0 min 0,000 mm 0,0 UV-I 50 W/m 2,0 C 6,9 C 6,4 km/h (2 Bft) 97,92 %
26.02.2017 16:36 6,9 C 71 % 1016,9 hPa 0,0 l/m 2,5 km/h (1 Bft) O 92 0 min 0,000 mm 0,0 UV-I 45 W/m 2,0 C 6,9 C 4,8 km/h (1 Bft) 93,62 %
26.02.2017 16:38 6,9 C 70 % 1016,9 hPa 0,0 l/m 1,5 km/h (1 Bft) O-SO 113 0 min 0,000 mm 0,0 UV-I 40 W/m 1,8 C 6,9 C 3,2 km/h (1 Bft) 91,43 %
26.02.2017 16:40 6,9 C 71 % 1016,9 hPa 0,0 l/m 3,0 km/h (1 Bft) O-SO 113 0 min 0,000 mm 0,0 UV-I 36 W/m 2,0 C 6,9 C 4,8 km/h (1 Bft) 97,96 %
26.02.2017 16:42 6,9 C 71 % 1016,9 hPa 0,0 l/m 3,9 km/h (1 Bft) SO 135 0 min 0,000 mm 0,0 UV-I 34 W/m 2,0 C 6,9 C 6,4 km/h (2 Bft) 94,00 %
26.02.2017 16:44 6,8 C 71 % 1016,9 hPa 0,0 l/m 3,4 km/h (1 Bft) SO 130 0 min 0,000 mm 0,0 UV-I 32 W/m 1,9 C 6,8 C 4,8 km/h (1 Bft) 95,74 %
26.02.2017 16:46 6,9 C 70 % 1016,9 hPa 0,0 l/m 3,1 km/h (1 Bft) SO 129 0 min 0,000 mm 0,0 UV-I 31 W/m 1,8 C 6,9 C 4,8 km/h (1 Bft) 97,56 %
26.02.2017 16:48 6,8 C 71 % 1016,9 hPa 0,0 l/m 3,9 km/h (1 Bft) SO 128 0 min 0,000 mm 0,0 UV-I 29 W/m 1,9 C 6,8 C 4,8 km/h (1 Bft) 96,23 %
26.02.2017 16:50 6,8 C 71 % 1016,9 hPa 0,0 l/m 3,7 km/h (1 Bft) O-SO 123 0 min 0,000 mm 0,0 UV-I 26 W/m 1,9 C 6,8 C 6,4 km/h (2 Bft) 94,00 %
26.02.2017 16:52 6,8 C 72 % 1016,9 hPa 0,0 l/m 5,7 km/h (1 Bft) O-SO 119 0 min 0,000 mm 0,0 UV-I 25 W/m 2,1 C 6,8 C 8,0 km/h (2 Bft) 97,87 %
26.02.2017 16:54 6,8 C 71 % 1016,8 hPa 0,0 l/m 5,9 km/h (2 Bft) SO 134 0 min 0,000 mm 0,0 UV-I 25 W/m 1,9 C 6,8 C 9,7 km/h (2 Bft) 100,00 %
26.02.2017 16:56 6,8 C 72 % 1016,9 hPa 0,0 l/m 4,5 km/h (1 Bft) O-SO 116 0 min 0,000 mm 0,0 UV-I 25 W/m 2,1 C 6,8 C 6,4 km/h (2 Bft) 94,74 %
26.02.2017 16:58 6,8 C 72 % 1016,9 hPa 0,0 l/m 4,9 km/h (1 Bft) SO 132 0 min 0,000 mm 0,0 UV-I 24 W/m 2,1 C 6,8 C 6,4 km/h (2 Bft) 95,74 %
26.02.2017 17:00 6,8 C 72 % 1016,8 hPa 0,0 l/m 5,8 km/h (2 Bft) SO 135 0 min 0,000 mm 0,0 UV-I 23 W/m 2,1 C 6,8 C 8,0 km/h (2 Bft) 97,44 %
26.02.2017 17:02 6,8 C 72 % 1016,9 hPa 0,0 l/m 5,5 km/h (1 Bft) SO 128 0 min 0,026 mm 0,0 UV-I 21 W/m 2,1 C 6,8 C 8,0 km/h (2 Bft) 96,23 %
26.02.2017 17:04 6,7 C 72 % 1016,8 hPa 0,0 l/m 6,7 km/h (2 Bft) O-SO 123 0 min 0,000 mm 0,0 UV-I 20 W/m 2,0 C 6,5 C 9,7 km/h (2 Bft) 98,11 %
26.02.2017 17:06 6,7 C 72 % 1016,9 hPa 0,0 l/m 4,0 km/h (1 Bft) O-SO 115 0 min 0,000 mm 0,0 UV-I 19 W/m 2,0 C 6,7 C 6,4 km/h (2 Bft) 98,11 %
26.02.2017 17:08 6,7 C 72 % 1016,9 hPa 0,0 l/m 5,4 km/h (1 Bft) O-SO 115 0 min 0,000 mm 0,0 UV-I 19 W/m 2,0 C 6,7 C 9,7 km/h (2 Bft) 100,00 %
26.02.2017 17:10 6,7 C 72 % 1016,9 hPa 0,0 l/m 5,5 km/h (1 Bft) SO 135 0 min 0,000 mm 0,0 UV-I 18 W/m 2,0 C 6,7 C 8,0 km/h (2 Bft) 93,18 %
26.02.2017 17:12 6,7 C 72 % 1016,9 hPa 0,0 l/m 5,3 km/h (1 Bft) O-SO 121 0 min 0,000 mm 0,0 UV-I 17 W/m 2,0 C 6,7 C 12,9 km/h (3 Bft) 97,87 %
26.02.2017 17:14 6,7 C 72 % 1016,8 hPa 0,0 l/m 5,6 km/h (1 Bft) O-SO 120 0 min 0,000 mm 0,0 UV-I 15 W/m 2,0 C 6,7 C 9,7 km/h (2 Bft) 95,74 %
26.02.2017 17:16 6,7 C 72 % 1016,9 hPa 0,0 l/m 3,5 km/h (1 Bft) O-SO 114 0 min 0,000 mm 0,0 UV-I 14 W/m 2,0 C 6,7 C 6,4 km/h (2 Bft) 97,37 %
26.02.2017 17:18 6,7 C 72 % 1016,9 hPa 0,0 l/m 5,9 km/h (2 Bft) O-SO 114 0 min 0,000 mm 0,0 UV-I 12 W/m 2,0 C 6,7 C 9,7 km/h (2 Bft) 96,23 %
26.02.2017 17:20 6,7 C 72 % 1016,9 hPa 0,0 l/m 7,4 km/h (2 Bft) O-SO 121 0 min 0,000 mm 0,0 UV-I 12 W/m 2,0 C 5,9 C 11,3 km/h (2 Bft) 100,00 %
26.02.2017 17:22 6,6 C 72 % 1016,9 hPa 0,0 l/m 4,5 km/h (1 Bft) O-SO 117 0 min 0,000 mm 0,0 UV-I 11 W/m 1,9 C 6,6 C 9,7 km/h (2 Bft) 94,74 %
26.02.2017 17:24 6,7 C 72 % 1016,9 hPa 0,0 l/m 3,5 km/h (1 Bft) O-SO 117 0 min 0,000 mm 0,0 UV-I 10 W/m 2,0 C 6,7 C 4,8 km/h (1 Bft) 94,00 %
26.02.2017 17:26 6,6 C 73 % 1016,9 hPa 0,0 l/m 4,6 km/h (1 Bft) SO 137 0 min 0,000 mm 0,0 UV-I 9 W/m 2,1 C 6,6 C 8,0 km/h (2 Bft) 100,00 %
26.02.2017 17:28 6,6 C 72 % 1017,0 hPa 0,0 l/m 2,2 km/h (1 Bft) SO 140 0 min 0,000 mm 0,0 UV-I 7 W/m 1,9 C 6,6 C 3,2 km/h (1 Bft) 100,00 %
26.02.2017 17:30 6,6 C 72 % 1017,0 hPa 0,0 l/m 2,2 km/h (1 Bft) SO 140 0 min 0,000 mm 0,0 UV-I 7 W/m 1,9 C 6,6 C 4,8 km/h (1 Bft) 93,62 %
26.02.2017 17:32 6,6 C 73 % 1016,9 hPa 0,0 l/m 2,3 km/h (1 Bft) SO 140 0 min 0,000 mm 0,0 UV-I 7 W/m 2,1 C 6,6 C 4,8 km/h (1 Bft) 100,00 %
26.02.2017 17:34 6,6 C 73 % 1017,0 hPa 0,0 l/m 3,8 km/h (1 Bft) SO 126 0 min 0,000 mm 0,0 UV-I 7 W/m 2,1 C 6,6 C 8,0 km/h (2 Bft) 100,00 %
26.02.2017 17:36 6,6 C 73 % 1017,0 hPa 0,0 l/m 3,7 km/h (1 Bft) SO 128 0 min 0,000 mm 0,0 UV-I 5 W/m 2,1 C 6,6 C 6,4 km/h (2 Bft) 100,00 %
26.02.2017 17:39 6,5 C 73 % 1016,9 hPa 0,0 l/m 4,2 km/h (1 Bft) O-SO 115 0 min 0,000 mm 0,0 UV-I 5 W/m 2,0 C 6,5 C 6,4 km/h (2 Bft) 100,00 %
26.02.2017 17:40 6,5 C 73 % 1016,9 hPa 0,0 l/m 4,8 km/h (1 Bft) O-SO 119 0 min 0,000 mm 0,0 UV-I 5 W/m 2,0 C 6,5 C 6,4 km/h (2 Bft) 100,00 %
26.02.2017 17:42 6,5 C 74 % 1016,9 hPa 0,0 l/m 4,4 km/h (1 Bft) O-SO 107 0 min 0,000 mm 0,0 UV-I 4 W/m 2,2 C 6,5 C 6,4 km/h (2 Bft) 100,00 %
26.02.2017 17:44 6,4 C 74 % 1016,9 hPa 0,0 l/m 3,7 km/h (1 Bft) SO 127 0 min 0,000 mm 0,0 UV-I 0 W/m 2,1 C 6,4 C 6,4 km/h (2 Bft) 98,00 %
26.02.2017 17:46 6,4 C 74 % 1016,9 hPa 0,0 l/m 4,9 km/h (1 Bft) SO 127 0 min 0,000 mm 0,0 UV-I 0 W/m 2,1 C 6,4 C 9,7 km/h (2 Bft) 97,87 %
26.02.2017 17:48 6,4 C 74 % 1016,9 hPa 0,0 l/m 4,8 km/h (1 Bft) SO 142 0 min 0,000 mm 0,0 UV-I 0 W/m 2,1 C 6,4 C 9,7 km/h (2 Bft) 97,87 %
26.02.2017 17:50 6,4 C 74 % 1016,9 hPa 0,0 l/m 3,9 km/h (1 Bft) SO 126 0 min 0,000 mm 0,0 UV-I 0 W/m 2,1 C 6,4 C 6,4 km/h (2 Bft) 100,00 %
26.02.2017 17:52 6,4 C 74 % 1016,9 hPa 0,0 l/m 3,3 km/h (1 Bft) SO 127 0 min 0,000 mm 0,0 UV-I 0 W/m 2,1 C 6,4 C 11,3 km/h (2 Bft) 100,00 %
26.02.2017 17:54 6,4 C 74 % 1016,9 hPa 0,0 l/m 2,3 km/h (1 Bft) O-SO 121 0 min 0,000 mm 0,0 UV-I 0 W/m 2,1 C 6,4 C 4,8 km/h (1 Bft) 95,74 %
26.02.2017 17:56 6,4 C 74 % 1016,8 hPa 0,0 l/m 3,1 km/h (1 Bft) SO 126 0 min 0,000 mm 0,0 UV-I 0 W/m 2,1 C 6,4 C 6,4 km/h (2 Bft) 100,00 %
26.02.2017 17:58 6,4 C 74 % 1016,8 hPa 0,0 l/m 3,3 km/h (1 Bft) SO 142 0 min 0,000 mm 0,0 UV-I 0 W/m 2,1 C 6,4 C 9,7 km/h (2 Bft) 97,87 %
26.02.2017 18:00 6,3 C 74 % 1016,8 hPa 0,0 l/m 4,7 km/h (1 Bft) SO 146 0 min 0,000 mm 0,0 UV-I 0 W/m 2,0 C 6,3 C 11,3 km/h (2 Bft) 100,00 %
26.02.2017 18:03 6,3 C 74 % 1016,8 hPa 0,0 l/m 5,9 km/h (2 Bft) SO 134 0 min 0,025 mm 0,0 UV-I 0 W/m 2,0 C 6,3 C 11,3 km/h (2 Bft) 94,37 %
26.02.2017 18:04 6,3 C 74 % 1016,8 hPa 0,0 l/m 3,5 km/h (1 Bft) O-SO 122 0 min 0,000 mm 0,0 UV-I 0 W/m 2,0 C 6,3 C 4,8 km/h (1 Bft) 100,00 %
26.02.2017 18:06 6,3 C 74 % 1016,8 hPa 0,0 l/m 6,1 km/h (2 Bft) SO 139 0 min 0,000 mm 0,0 UV-I 0 W/m 2,0 C 6,3 C 12,9 km/h (3 Bft) 100,00 %
26.02.2017 18:08 6,3 C 74 % 1016,8 hPa 0,0 l/m 5,3 km/h (1 Bft) O-SO 113 0 min 0,000 mm 0,0 UV-I 0 W/m 2,0 C 6,3 C 11,3 km/h (2 Bft) 100,00 %
26.02.2017 18:10 6,3 C 74 % 1016,8 hPa 0,0 l/m 5,8 km/h (2 Bft) O-SO 121 0 min 0,000 mm 0,0 UV-I 0 W/m 2,0 C 6,3 C 8,0 km/h (2 Bft) 97,87 %
26.02.2017 18:12 6,3 C 74 % 1016,8 hPa 0,0 l/m 5,5 km/h (1 Bft) O-SO 123 0 min 0,000 mm 0,0 UV-I 0 W/m 2,0 C 6,3 C 9,7 km/h (2 Bft) 100,00 %
26.02.2017 18:14 6,3 C 74 % 1016,8 hPa 0,0 l/m 3,9 km/h (1 Bft) SO 139 0 min 0,000 mm 0,0 UV-I 0 W/m 2,0 C 6,3 C 6,4 km/h (2 Bft) 93,62 %
26.02.2017 18:16 6,3 C 74 % 1016,8 hPa 0,0 l/m 2,6 km/h (1 Bft) SO 138 0 min 0,000 mm 0,0 UV-I 0 W/m 2,0 C 6,3 C 4,8 km/h (1 Bft) 95,74 %
26.02.2017 18:18 6,3 C 74 % 1016,8 hPa 0,0 l/m 2,5 km/h (1 Bft) SO 138 0 min 0,000 mm 0,0 UV-I 0 W/m 2,0 C 6,3 C 4,8 km/h (1 Bft) 88,68 %
26.02.2017 18:20 6,3 C 75 % 1016,8 hPa 0,0 l/m 2,0 km/h (1 Bft) SO 138 0 min 0,000 mm 0,0 UV-I 0 W/m 2,2 C 6,3 C 4,8 km/h (1 Bft) 91,49 %
26.02.2017 18:22 6,3 C 75 % 1016,9 hPa 0,0 l/m 2,8 km/h (1 Bft) SO 135 0 min 0,000 mm 0,0 UV-I 0 W/m 2,2 C 6,3 C 4,8 km/h (1 Bft) 94,74 %
26.02.2017 18:24 6,2 C 75 % 1016,8 hPa 0,0 l/m 4,1 km/h (1 Bft) O-SO 119 0 min 0,000 mm 0,0 UV-I 0 W/m 2,1 C 6,2 C 8,0 km/h (2 Bft) 96,00 %
26.02.2017 18:26 6,2 C 76 % 1016,8 hPa 0,0 l/m 5,0 km/h (1 Bft) O-SO 117 0 min 0,000 mm 0,0 UV-I 0 W/m 2,3 C 6,2 C 8,0 km/h (2 Bft) 98,11 %
26.02.2017 18:28 6,2 C 76 % 1016,9 hPa 0,0 l/m 1,4 km/h (1 Bft) O-SO 117 0 min 0,000 mm 0,0 UV-I 0 W/m 2,3 C 6,2 C 4,8 km/h (1 Bft) 95,83 %
26.02.2017 18:30 6,1 C 76 % 1016,9 hPa 0,0 l/m 0,4 km/h (0 Bft) O-SO 117 0 min 0,000 mm 0,0 UV-I 0 W/m 2,2 C 6,1 C 1,6 km/h (1 Bft) 95,08 %
26.02.2017 18:32 6,1 C 76 % 1017,0 hPa 0,0 l/m 1,0 km/h (0 Bft) O-SO 117 0 min 0,000 mm 0,0 UV-I 0 W/m 2,2 C 6,1 C 3,2 km/h (1 Bft) 95,74 %
26.02.2017 18:34 6,2 C 75 % 1017,0 hPa 0,0 l/m 3,7 km/h (1 Bft) O-SO 117 0 min 0,000 mm 0,0 UV-I 0 W/m 2,1 C 6,2 C 4,8 km/h (1 Bft) 100,00 %
26.02.2017 18:36 6,2 C 74 % 1017,0 hPa 0,0 l/m 1,3 km/h (1 Bft) O-SO 117 0 min 0,000 mm 0,0 UV-I 0 W/m 1,9 C 6,2 C 3,2 km/h (1 Bft) 96,88 %
26.02.2017 18:39 6,2 C 76 % 1017,1 hPa 0,0 l/m 0,6 km/h (0 Bft) O-SO 117 0 min 0,000 mm 0,0 UV-I 0 W/m 2,3 C 6,2 C 3,2 km/h (1 Bft) 95,77 %
26.02.2017 18:40 6,1 C 77 % 1017,1 hPa 0,0 l/m 1,5 km/h (1 Bft) O-SO 117 0 min 0,000 mm 0,0 UV-I 0 W/m 2,4 C 6,1 C 3,2 km/h (1 Bft) 100,00 %
26.02.2017 18:42 5,9 C 78 % 1017,1 hPa 0,0 l/m 0,3 km/h (0 Bft) O-SO 117 0 min 0,000 mm 0,0 UV-I 0 W/m 2,4 C 5,9 C 1,6 km/h (1 Bft) 97,87 %
26.02.2017 18:44 5,8 C 79 % 1017,1 hPa 0,0 l/m 1,5 km/h (1 Bft) O-SO 117 0 min 0,000 mm 0,0 UV-I 0 W/m 2,4 C 5,8 C 3,2 km/h (1 Bft) 93,62 %
26.02.2017 18:46 5,9 C 77 % 1017,1 hPa 0,0 l/m 2,0 km/h (1 Bft) O-SO 117 0 min 0,000 mm 0,0 UV-I 0 W/m 2,2 C 5,9 C 3,2 km/h (1 Bft) 95,74 %
26.02.2017 18:48 5,9 C 78 % 1017,0 hPa 0,0 l/m 1,4 km/h (1 Bft) O-SO 117 0 min 0,000 mm 0,0 UV-I 0 W/m 2,4 C 5,9 C 3,2 km/h (1 Bft) 100,00 %
26.02.2017 18:50 5,8 C 79 % 1017,0 hPa 0,0 l/m 1,8 km/h (1 Bft) O-SO 117 0 min 0,000 mm 0,0 UV-I 0 W/m 2,4 C 5,8 C 3,2 km/h (1 Bft) 95,74 %
26.02.2017 18:52 5,7 C 80 % 1017,0 hPa 0,0 l/m 2,4 km/h (1 Bft) O-SO 118 0 min 0,000 mm 0,0 UV-I 0 W/m 2,5 C 5,7 C 6,4 km/h (2 Bft) 100,00 %
26.02.2017 18:54 5,6 C 81 % 1017,0 hPa 0,0 l/m 2,8 km/h (1 Bft) O-SO 119 0 min 0,000 mm 0,0 UV-I 0 W/m 2,6 C 5,6 C 6,4 km/h (2 Bft) 96,00 %
26.02.2017 18:56 5,6 C 81 % 1016,9 hPa 0,0 l/m 4,2 km/h (1 Bft) SO 130 0 min 0,000 mm 0,0 UV-I 0 W/m 2,6 C 5,6 C 6,4 km/h (2 Bft) 100,00 %
26.02.2017 18:58 5,6 C 80 % 1016,9 hPa 0,0 l/m 4,2 km/h (1 Bft) SO 138 0 min 0,000 mm 0,0 UV-I 0 W/m 2,4 C 5,6 C 8,0 km/h (2 Bft) 97,14 %
26.02.2017 19:00 5,7 C 79 % 1016,8 hPa 0,0 l/m 4,9 km/h (1 Bft) SO 139 0 min 0,000 mm 0,0 UV-I 0 W/m 2,3 C 5,7 C 8,0 km/h (2 Bft) 98,31 %
26.02.2017 19:02 5,8 C 78 % 1016,8 hPa 0,0 l/m 5,8 km/h (2 Bft) O-SO 104 0 min 0,000 mm 0,0 UV-I 0 W/m 2,3 C 5,8 C 11,3 km/h (2 Bft) 100,00 %
26.02.2017 19:04 5,9 C 77 % 1016,7 hPa 0,0 l/m 4,8 km/h (1 Bft) S-SO 153 0 min 0,000 mm 0,0 UV-I 0 W/m 2,2 C 5,9 C 8,0 km/h (2 Bft) 98,46 %
26.02.2017 19:06 5,9 C 77 % 1016,7 hPa 0,0 l/m 4,7 km/h (1 Bft) SO 129 0 min 0,000 mm 0,0 UV-I 0 W/m 2,2 C 5,9 C 6,4 km/h (2 Bft) 97,56 %
26.02.2017 19:08 5,9 C 77 % 1016,7 hPa 0,0 l/m 4,7 km/h (1 Bft) SO 124 0 min 0,000 mm 0,0 UV-I 0 W/m 2,2 C 5,9 C 11,3 km/h (2 Bft) 100,00 %
26.02.2017 19:10 5,9 C 77 % 1016,8 hPa 0,0 l/m 3,5 km/h (1 Bft) SO 142 0 min 0,000 mm 0,0 UV-I 0 W/m 2,2 C 5,9 C 8,0 km/h (2 Bft) 97,92 %
26.02.2017 19:12 5,9 C 76 % 1016,8 hPa 0,0 l/m 3,8 km/h (1 Bft) O-SO 123 0 min 0,000 mm 0,0 UV-I 0 W/m 2,0 C 5,9 C 6,4 km/h (2 Bft) 100,00 %
26.02.2017 19:14 5,9 C 76 % 1016,8 hPa 0,0 l/m 2,4 km/h (1 Bft) SO 137 0 min 0,000 mm 0,0 UV-I 0 W/m 2,0 C 5,9 C 6,4 km/h (2 Bft) 98,11 %
26.02.2017 19:16 5,9 C 76 % 1016,8 hPa 0,0 l/m 2,0 km/h (1 Bft) SO 138 0 min 0,000 mm 0,0 UV-I 0 W/m 2,0 C 5,9 C 4,8 km/h (1 Bft) 100,00 %
26.02.2017 19:18 5,9 C 76 % 1016,8 hPa 0,0 l/m 0,3 km/h (0 Bft) SO 138 0 min 0,000 mm 0,0 UV-I 0 W/m 2,0 C 5,9 C 1,6 km/h (1 Bft) 96,23 %
26.02.2017 19:20 5,9 C 76 % 1016,9 hPa 0,0 l/m 0,0 km/h (0 Bft) SO 138 0 min 0,000 mm 0,0 UV-I 0 W/m 2,0 C 5,9 C 1,6 km/h (1 Bft) 100,00 %
26.02.2017 19:22 5,8 C 77 % 1016,9 hPa 0,0 l/m 0,8 km/h (0 Bft) SO 137 0 min 0,000 mm 0,0 UV-I 0 W/m 2,1 C 5,8 C 3,2 km/h (1 Bft) 96,00 %
26.02.2017 19:24 5,7 C 79 % 1016,9 hPa 0,0 l/m 0,7 km/h (0 Bft) O-SO 122 0 min 0,000 mm 0,0 UV-I 0 W/m 2,3 C 5,7 C 3,2 km/h (1 Bft) 100,00 %
26.02.2017 19:26 5,6 C 79 % 1016,9 hPa 0,0 l/m 0,0 km/h (0 Bft) O-SO 122 0 min 0,000 mm 0,0 UV-I 0 W/m 2,3 C 5,6 C 1,6 km/h (1 Bft) 95,74 %
26.02.2017 19:28 5,4 C 80 % 1016,9 hPa 0,0 l/m 1,9 km/h (1 Bft) O-SO 117 0 min 0,000 mm 0,0 UV-I 0 W/m 2,2 C 5,4 C 4,8 km/h (1 Bft) 98,00 %
26.02.2017 19:30 5,3 C 80 % 1016,8 hPa 0,0 l/m 4,0 km/h (1 Bft) O-SO 114 0 min 0,000 mm 0,0 UV-I 0 W/m 2,1 C 5,3 C 4,8 km/h (1 Bft) 100,00 %
26.02.2017 19:32 5,4 C 80 % 1016,8 hPa 0,0 l/m 4,2 km/h (1 Bft) O 80 0 min 0,000 mm 0,0 UV-I 0 W/m 2,2 C 5,4 C 6,4 km/h (2 Bft) 94,74 %
26.02.2017 19:34 5,4 C 80 % 1016,8 hPa 0,0 l/m 4,0 km/h (1 Bft) O 80 0 min 0,000 mm 0,0 UV-I 0 W/m 2,2 C 5,4 C 4,8 km/h (1 Bft) 98,11 %
26.02.2017 19:36 5,4 C 80 % 1016,8 hPa 0,0 l/m 2,5 km/h (1 Bft) O 80 0 min 0,000 mm 0,0 UV-I 0 W/m 2,2 C 5,4 C 4,8 km/h (1 Bft) 100,00 %
26.02.2017 19:38 5,3 C 81 % 1016,7 hPa 0,0 l/m 1,6 km/h (1 Bft) O 80 0 min 0,000 mm 0,0 UV-I 0 W/m 2,3 C 5,3 C 3,2 km/h (1 Bft) 97,37 %
26.02.2017 19:40 5,3 C 82 % 1016,7 hPa 0,0 l/m 3,0 km/h (1 Bft) O 80 0 min 0,000 mm 0,0 UV-I 0 W/m 2,5 C 5,3 C 4,8 km/h (1 Bft) 98,00 %
26.02.2017 19:42 5,2 C 82 % 1016,7 hPa 0,0 l/m 1,9 km/h (1 Bft) O 80 0 min 0,000 mm 0,0 UV-I 0 W/m 2,4 C 5,2 C 3,2 km/h (1 Bft) 95,74 %
26.02.2017 19:44 5,1 C 82 % 1016,7 hPa 0,0 l/m 0,3 km/h (0 Bft) O 80 0 min 0,000 mm 0,0 UV-I 0 W/m 2,3 C 5,1 C 1,6 km/h (1 Bft) 98,21 %
26.02.2017 19:46 5,1 C 83 % 1016,6 hPa 0,0 l/m 0,0 km/h (0 Bft) O 80 0 min 0,000 mm 0,0 UV-I 0 W/m 2,5 C 5,1 C 0,0 km/h (0 Bft) 100,00 %
26.02.2017 19:48 5,0 C 83 % 1016,6 hPa 0,0 l/m 0,0 km/h (0 Bft) O 80 0 min 0,000 mm 0,0 UV-I 0 W/m 2,4 C 5,0 C 0,0 km/h (0 Bft) 100,00 %
26.02.2017 19:50 4,9 C 84 % 1016,6 hPa 0,0 l/m 0,0 km/h (0 Bft) O 80 0 min 0,000 mm 0,0 UV-I 0 W/m 2,4 C 4,9 C 0,0 km/h (0 Bft) 100,00 %
26.02.2017 19:52 4,9 C 83 % 1016,7 hPa 0,0 l/m 0,0 km/h (0 Bft) O 80 0 min 0,000 mm 0,0 UV-I 0 W/m 2,3 C 4,9 C 0,0 km/h (0 Bft) 100,00 %
26.02.2017 19:54 5,0 C 83 % 1016,7 hPa 0,0 l/m 0,0 km/h (0 Bft) O 80 0 min 0,000 mm 0,0 UV-I 0 W/m 2,4 C 5,0 C 0,0 km/h (0 Bft) 97,56 %
26.02.2017 19:56 5,0 C 82 % 1016,7 hPa 0,0 l/m 0,0 km/h (0 Bft) O 80 0 min 0,000 mm 0,0 UV-I 0 W/m 2,2 C 5,0 C 0,0 km/h (0 Bft) 100,00 %
26.02.2017 19:58 5,1 C 82 % 1016,7 hPa 0,0 l/m 0,0 km/h (0 Bft) O 80 0 min 0,000 mm 0,0 UV-I 0 W/m 2,3 C 5,1 C 0,0 km/h (0 Bft) 100,00 %
26.02.2017 20:00 5,1 C 82 % 1016,7 hPa 0,0 l/m 1,0 km/h (0 Bft) O 80 0 min 0,000 mm 0,0 UV-I 0 W/m 2,3 C 5,1 C 3,2 km/h (1 Bft) 100,00 %
26.02.2017 20:02 5,0 C 82 % 1016,7 hPa 0,0 l/m 0,0 km/h (0 Bft) O 80 0 min 0,000 mm 0,0 UV-I 0 W/m 2,2 C 5,0 C 1,6 km/h (1 Bft) 98,00 %
26.02.2017 20:05 4,9 C 83 % 1016,7 hPa 0,0 l/m 0,0 km/h (0 Bft) O 80 0 min 0,000 mm 0,0 UV-I 0 W/m 2,3 C 4,9 C 1,6 km/h (1 Bft) 97,30 %
26.02.2017 20:06 4,9 C 83 % 1016,7 hPa 0,0 l/m 1,0 km/h (0 Bft) O 80 0 min 0,000 mm 0,0 UV-I 0 W/m 2,3 C 4,9 C 1,6 km/h (1 Bft) 100,00 %
26.02.2017 20:08 4,9 C 83 % 1016,7 hPa 0,0 l/m 2,0 km/h (1 Bft) O 80 0 min 0,000 mm 0,0 UV-I 0 W/m 2,3 C 4,9 C 3,2 km/h (1 Bft) 100,00 %
26.02.2017 20:10 4,9 C 82 % 1016,7 hPa 0,0 l/m 2,3 km/h (1 Bft) O 80 0 min 0,000 mm 0,0 UV-I 0 W/m 2,1 C 4,9 C 3,2 km/h (1 Bft) 93,62 %
26.02.2017 20:12 4,9 C 83 % 1016,6 hPa 0,0 l/m 2,0 km/h (1 Bft) O 80 0 min 0,000 mm 0,0 UV-I 0 W/m 2,3 C 4,9 C 3,2 km/h (1 Bft) 100,00 %
26.02.2017 20:14 4,9 C 83 % 1016,6 hPa 0,0 l/m 3,1 km/h (1 Bft) O 80 0 min 0,000 mm 0,0 UV-I 0 W/m 2,3 C 4,9 C 4,8 km/h (1 Bft) 100,00 %
26.02.2017 20:16 5,0 C 82 % 1016,6 hPa 0,0 l/m 2,3 km/h (1 Bft) O 80 0 min 0,000 mm 0,0 UV-I 0 W/m 2,2 C 5,0 C 3,2 km/h (1 Bft) 98,21 %
26.02.2017 20:18 4,9 C 83 % 1016,5 hPa 0,0 l/m 1,6 km/h (1 Bft) O 80 0 min 0,000 mm 0,0 UV-I 0 W/m 2,3 C 4,9 C 3,2 km/h (1 Bft) 100,00 %
26.02.2017 20:20 4,7 C 83 % 1016,5 hPa 0,0 l/m 1,9 km/h (1 Bft) O 80 0 min 0,000 mm 0,0 UV-I 0 W/m 2,1 C 4,7 C 3,2 km/h (1 Bft) 100,00 %
26.02.2017 20:22 4,6 C 83 % 1016,5 hPa 0,0 l/m 1,4 km/h (1 Bft) O 80 0 min 0,000 mm 0,0 UV-I 0 W/m 2,0 C 4,6 C 3,2 km/h (1 Bft) 96,92 %
26.02.2017 20:24 4,5 C 84 % 1016,5 hPa 0,0 l/m 2,0 km/h (1 Bft) O 80 0 min 0,000 mm 0,0 UV-I 0 W/m 2,0 C 4,5 C 3,2 km/h (1 Bft) 94,74 %
26.02.2017 20:26 4,4 C 84 % 1016,5 hPa 0,0 l/m 2,6 km/h (1 Bft) O 80 0 min 0,000 mm 0,0 UV-I 0 W/m 1,9 C 4,4 C 3,2 km/h (1 Bft) 96,00 %
26.02.2017 20:28 4,5 C 84 % 1016,5 hPa 0,0 l/m 2,8 km/h (1 Bft) O 80 0 min 0,000 mm 0,0 UV-I 0 W/m 2,0 C 4,5 C 4,8 km/h (1 Bft) 96,00 %
26.02.2017 20:30 4,7 C 84 % 1016,5 hPa 0,0 l/m 2,4 km/h (1 Bft) O 80 0 min 0,000 mm 0,0 UV-I 0 W/m 2,2 C 4,7 C 3,2 km/h (1 Bft) 97,37 %
26.02.2017 20:32 4,8 C 83 % 1016,5 hPa 0,0 l/m 1,0 km/h (0 Bft) O 80 0 min 0,000 mm 0,0 UV-I 0 W/m 2,2 C 4,8 C 3,2 km/h (1 Bft) 95,74 %
26.02.2017 20:34 4,7 C 83 % 1016,5 hPa 0,0 l/m 0,0 km/h (0 Bft) O 80 0 min 0,000 mm 0,0 UV-I 0 W/m 2,1 C 4,7 C 0,0 km/h (0 Bft) 97,87 %
26.02.2017 20:36 4,6 C 84 % 1016,5 hPa 0,0 l/m 0,0 km/h (0 Bft) O 80 0 min 0,000 mm 0,0 UV-I 0 W/m 2,1 C 4,6 C 0,0 km/h (0 Bft) 95,83 %
26.02.2017 20:38 4,4 C 84 % 1016,5 hPa 0,0 l/m 0,0 km/h (0 Bft) O 80 0 min 0,000 mm 0,0 UV-I 0 W/m 1,9 C 4,4 C 0,0 km/h (0 Bft) 94,34 %
26.02.2017 20:40 4,3 C 84 % 1016,4 hPa 0,0 l/m 0,4 km/h (0 Bft) O 80 0 min 0,000 mm 0,0 UV-I 0 W/m 1,8 C 4,3 C 1,6 km/h (1 Bft) 98,00 %
26.02.2017 20:43 4,2 C 85 % 1016,4 hPa 0,0 l/m 1,0 km/h (0 Bft) O 80 0 min 0,000 mm 0,0 UV-I 0 W/m 1,9 C 4,2 C 3,2 km/h (1 Bft) 97,26 %
26.02.2017 20:44 4,2 C 85 % 1016,4 hPa 0,0 l/m 0,0 km/h (0 Bft) O 80 0 min 0,000 mm 0,0 UV-I 0 W/m 1,9 C 4,2 C 0,0 km/h (0 Bft) 100,00 %
26.02.2017 20:46 4,1 C 86 % 1016,4 hPa 0,0 l/m 0,0 km/h (0 Bft) O 80 0 min 0,000 mm 0,0 UV-I 0 W/m 2,0 C 4,1 C 0,0 km/h (0 Bft) 96,00 %
26.02.2017 20:48 4,1 C 86 % 1016,4 hPa 0,0 l/m 0,0 km/h (0 Bft) O 80 0 min 0,000 mm 0,0 UV-I 0 W/m 2,0 C 4,1 C 0,0 km/h (0 Bft) 96,00 %
26.02.2017 20:50 4,0 C 86 % 1016,4 hPa 0,0 l/m 0,0 km/h (0 Bft) O 80 0 min 0,000 mm 0,0 UV-I 0 W/m 1,9 C 4,0 C 0,0 km/h (0 Bft) 97,56 %
26.02.2017 20:52 4,0 C 86 % 1016,5 hPa 0,0 l/m 0,0 km/h (0 Bft) O 80 0 min 0,000 mm 0,0 UV-I 0 W/m 1,9 C 4,0 C 0,0 km/h (0 Bft) 98,00 %
26.02.2017 20:54 4,0 C 86 % 1016,5 hPa 0,0 l/m 0,0 km/h (0 Bft) O 80 0 min 0,000 mm 0,0 UV-I 0 W/m 1,9 C 4,0 C 0,0 km/h (0 Bft) 97,87 %
26.02.2017 20:56 3,9 C 86 % 1016,5 hPa 0,0 l/m 0,0 km/h (0 Bft) O 80 0 min 0,000 mm 0,0 UV-I 0 W/m 1,8 C 3,9 C 0,0 km/h (0 Bft) 96,00 %
26.02.2017 20:59 3,7 C 87 % 1016,5 hPa 0,0 l/m 0,0 km/h (0 Bft) O 80 0 min 0,000 mm 0,0 UV-I 0 W/m 1,7 C 3,7 C 0,0 km/h (0 Bft) 95,77 %
26.02.2017 21:00 3,7 C 87 % 1016,5 hPa 0,0 l/m 0,0 km/h (0 Bft) O 80 0 min 0,000 mm 0,0 UV-I 0 W/m 1,7 C 3,7 C 0,0 km/h (0 Bft) 100,00 %
26.02.2017 21:02 3,7 C 87 % 1016,5 hPa 0,0 l/m 0,0 km/h (0 Bft) O 80 0 min 0,000 mm 0,0 UV-I 0 W/m 1,7 C 3,7 C 0,0 km/h (0 Bft) 100,00 %
26.02.2017 21:04 3,7 C 87 % 1016,5 hPa 0,0 l/m 0,0 km/h (0 Bft) O 80 0 min 0,000 mm 0,0 UV-I 0 W/m 1,7 C 3,7 C 0,0 km/h (0 Bft) 97,87 %
26.02.2017 21:06 3,8 C 87 % 1016,5 hPa 0,0 l/m 0,0 km/h (0 Bft) O 80 0 min 0,000 mm 0,0 UV-I 0 W/m 1,8 C 3,8 C 0,0 km/h (0 Bft) 97,87 %
26.02.2017 21:08 3,8 C 86 % 1016,5 hPa 0,0 l/m 0,0 km/h (0 Bft) O 80 0 min 0,000 mm 0,0 UV-I 0 W/m 1,7 C 3,8 C 0,0 km/h (0 Bft) 100,00 %
26.02.2017 21:10 3,8 C 86 % 1016,5 hPa 0,0 l/m 0,0 km/h (0 Bft) O 80 0 min 0,000 mm 0,0 UV-I 0 W/m 1,7 C 3,8 C 0,0 km/h (0 Bft) 98,36 %
26.02.2017 21:12 3,8 C 86 % 1016,5 hPa 0,0 l/m 0,0 km/h (0 Bft) O 80 0 min 0,000 mm 0,0 UV-I 0 W/m 1,7 C 3,8 C 0,0 km/h (0 Bft) 96,00 %
26.02.2017 21:14 3,7 C 87 % 1016,5 hPa 0,0 l/m 0,0 km/h (0 Bft) O 80 0 min 0,000 mm 0,0 UV-I 0 W/m 1,7 C 3,7 C 0,0 km/h (0 Bft) 100,00 %
26.02.2017 21:16 3,6 C 87 % 1016,5 hPa 0,0 l/m 0,0 km/h (0 Bft) O 80 0 min 0,000 mm 0,0 UV-I 0 W/m 1,6 C 3,6 C 0,0 km/h (0 Bft) 97,56 %
26.02.2017 21:18 3,5 C 88 % 1016,4 hPa 0,0 l/m 0,0 km/h (0 Bft) O 80 0 min 0,000 mm 0,0 UV-I 0 W/m 1,7 C 3,5 C 0,0 km/h (0 Bft) 96,00 %
26.02.2017 21:20 3,4 C 88 % 1016,4 hPa 0,0 l/m 0,0 km/h (0 Bft) O 80 0 min 0,000 mm 0,0 UV-I 0 W/m 1,6 C 3,4 C 0,0 km/h (0 Bft) 98,00 %
26.02.2017 21:22 3,3 C 89 % 1016,4 hPa 0,0 l/m 0,0 km/h (0 Bft) O 80 0 min 0,000 mm 0,0 UV-I 0 W/m 1,7 C 3,3 C 0,0 km/h (0 Bft) 97,87 %
26.02.2017 21:24 3,4 C 88 % 1016,4 hPa 0,0 l/m 0,0 km/h (0 Bft) O 80 0 min 0,000 mm 0,0 UV-I 0 W/m 1,6 C 3,4 C 0,0 km/h (0 Bft) 93,62 %
26.02.2017 21:26 3,4 C 87 % 1016,4 hPa 0,0 l/m 0,0 km/h (0 Bft) O 80 0 min 0,000 mm 0,0 UV-I 0 W/m 1,4 C 3,4 C 0,0 km/h (0 Bft) 100,00 %
26.02.2017 21:28 3,5 C 87 % 1016,3 hPa 0,0 l/m 0,0 km/h (0 Bft) O 80 0 min 0,000 mm 0,0 UV-I 0 W/m 1,5 C 3,5 C 0,0 km/h (0 Bft) 96,00 %
26.02.2017 21:30 3,4 C 87 % 1016,3 hPa 0,0 l/m 0,5 km/h (0 Bft) O 80 0 min 0,000 mm 0,0 UV-I 0 W/m 1,4 C 3,4 C 3,2 km/h (1 Bft) 96,23 %
26.02.2017 21:32 3,3 C 86 % 1016,3 hPa 0,0 l/m 2,3 km/h (1 Bft) O 80 0 min 0,000 mm 0,0 UV-I 0 W/m 1,2 C 3,3 C 3,2 km/h (1 Bft) 97,37 %
26.02.2017 21:34 3,2 C 87 % 1016,3 hPa 0,0 l/m 2,2 km/h (1 Bft) O 80 0 min 0,000 mm 0,0 UV-I 0 W/m 1,2 C 3,2 C 3,2 km/h (1 Bft) 97,87 %
26.02.2017 21:36 3,2 C 88 % 1016,3 hPa 0,0 l/m 1,8 km/h (1 Bft) O 80 0 min 0,000 mm 0,0 UV-I 0 W/m 1,4 C 3,2 C 3,2 km/h (1 Bft) 98,00 %
26.02.2017 21:38 3,2 C 88 % 1016,4 hPa 0,0 l/m 1,8 km/h (1 Bft) O 80 0 min 0,000 mm 0,0 UV-I 0 W/m 1,4 C 3,2 C 4,8 km/h (1 Bft) 98,00 %
26.02.2017 21:40 3,3 C 88 % 1016,4 hPa 0,0 l/m 0,0 km/h (0 Bft) O 80 0 min 0,000 mm 0,0 UV-I 0 W/m 1,5 C 3,3 C 0,0 km/h (0 Bft) 95,74 %
26.02.2017 21:42 3,3 C 87 % 1016,4 hPa 0,0 l/m 0,0 km/h (0 Bft) O 80 0 min 0,000 mm 0,0 UV-I 0 W/m 1,3 C 3,3 C 0,0 km/h (0 Bft) 94,74 %
26.02.2017 21:44 3,3 C 87 % 1016,3 hPa 0,0 l/m 1,0 km/h (0 Bft) O 80 0 min 0,000 mm 0,0 UV-I 0 W/m 1,3 C 3,3 C 1,6 km/h (1 Bft) 98,00 %
26.02.2017 21:46 3,3 C 87 % 1016,3 hPa 0,0 l/m 1,6 km/h (1 Bft) O 80 0 min 0,000 mm 0,0 UV-I 0 W/m 1,3 C 3,3 C 3,2 km/h (1 Bft) 96,00 %
26.02.2017 21:48 3,1 C 86 % 1016,3 hPa 0,0 l/m 1,8 km/h (1 Bft) O 80 0 min 0,000 mm 0,0 UV-I 0 W/m 1,0 C 3,1 C 3,2 km/h (1 Bft) 97,62 %
26.02.2017 21:50 2,9 C 88 % 1016,3 hPa 0,0 l/m 0,7 km/h (0 Bft) O 80 0 min 0,000 mm 0,0 UV-I 0 W/m 1,1 C 2,9 C 1,6 km/h (1 Bft) 95,74 %
26.02.2017 21:52 2,8 C 88 % 1016,4 hPa 0,0 l/m 0,0 km/h (0 Bft) O 80 0 min 0,000 mm 0,0 UV-I 0 W/m 1,0 C 2,8 C 0,0 km/h (0 Bft) 98,00 %
26.02.2017 21:54 2,7 C 88 % 1016,3 hPa 0,0 l/m 0,0 km/h (0 Bft) O 80 0 min 0,000 mm 0,0 UV-I 0 W/m 0,9 C 2,7 C 0,0 km/h (0 Bft) 95,74 %
26.02.2017 21:56 2,6 C 89 % 1016,3 hPa 0,0 l/m 2,9 km/h (1 Bft) O 80 0 min 0,000 mm 0,0 UV-I 0 W/m 1,0 C 2,6 C 4,8 km/h (1 Bft) 97,87 %
26.02.2017 21:58 2,6 C 89 % 1016,3 hPa 0,0 l/m 3,4 km/h (1 Bft) O 80 0 min 0,000 mm 0,0 UV-I 0 W/m 1,0 C 2,6 C 4,8 km/h (1 Bft) 98,00 %
26.02.2017 22:00 2,5 C 89 % 1016,3 hPa 0,0 l/m 3,2 km/h (1 Bft) O 80 0 min 0,000 mm 0,0 UV-I 0 W/m 0,9 C 2,5 C 4,8 km/h (1 Bft) 100,00 %
26.02.2017 22:02 2,5 C 89 % 1016,3 hPa 0,0 l/m 1,5 km/h (1 Bft) O 80 0 min 0,000 mm 0,0 UV-I 0 W/m 0,9 C 2,5 C 3,2 km/h (1 Bft) 100,00 %
26.02.2017 22:05 2,2 C 89 % 1016,2 hPa 0,0 l/m 0,1 km/h (0 Bft) O 80 0 min 0,000 mm 0,0 UV-I 0 W/m 0,6 C 2,2 C 1,6 km/h (1 Bft) 100,00 %
26.02.2017 22:06 2,2 C 89 % 1016,2 hPa 0,0 l/m 3,0 km/h (1 Bft) O 80 0 min 0,000 mm 0,0 UV-I 0 W/m 0,6 C 2,2 C 4,8 km/h (1 Bft) 100,00 %
26.02.2017 22:08 2,0 C 89 % 1016,2 hPa 0,0 l/m 1,7 km/h (1 Bft) O 80 0 min 0,000 mm 0,0 UV-I 0 W/m 0,4 C 2,0 C 4,8 km/h (1 Bft) 97,87 %
26.02.2017 22:10 2,0 C 90 % 1016,2 hPa 0,0 l/m 2,7 km/h (1 Bft) O 80 0 min 0,000 mm 0,0 UV-I 0 W/m 0,5 C 2,0 C 3,2 km/h (1 Bft) 100,00 %
26.02.2017 22:12 2,2 C 91 % 1016,2 hPa 0,0 l/m 1,9 km/h (1 Bft) O 80 0 min 0,000 mm 0,0 UV-I 0 W/m 0,9 C 2,2 C 3,2 km/h (1 Bft) 97,37 %
26.02.2017 22:14 2,3 C 90 % 1016,2 hPa 0,0 l/m 1,0 km/h (0 Bft) O 80 0 min 0,000 mm 0,0 UV-I 0 W/m 0,8 C 2,3 C 3,2 km/h (1 Bft) 97,87 %
26.02.2017 22:16 2,2 C 90 % 1016,1 hPa 0,0 l/m 1,7 km/h (1 Bft) O 80 0 min 0,000 mm 0,0 UV-I 0 W/m 0,7 C 2,2 C 3,2 km/h (1 Bft) 97,92 %
26.02.2017 22:19 2,0 C 89 % 1016,1 hPa 0,0 l/m 3,3 km/h (1 Bft) O 80 0 min 0,000 mm 0,0 UV-I 0 W/m 0,4 C 2,0 C 4,8 km/h (1 Bft) 95,89 %
26.02.2017 22:20 1,9 C 89 % 1016,1 hPa 0,0 l/m 2,1 km/h (1 Bft) O 80 0 min 0,000 mm 0,0 UV-I 0 W/m 0,3 C 1,9 C 3,2 km/h (1 Bft) 100,00 %
26.02.2017 22:22 1,9 C 90 % 1016,1 hPa 0,0 l/m 0,4 km/h (0 Bft) O 80 0 min 0,000 mm 0,0 UV-I 0 W/m 0,4 C 1,9 C 1,6 km/h (1 Bft) 97,87 %
26.02.2017 22:24 2,1 C 91 % 1016,1 hPa 0,0 l/m 0,0 km/h (0 Bft) O 80 0 min 0,000 mm 0,0 UV-I 0 W/m 0,8 C 2,1 C 0,0 km/h (0 Bft) 97,87 %
26.02.2017 22:26 2,2 C 90 % 1016,1 hPa 0,0 l/m 0,9 km/h (0 Bft) O 80 0 min 0,000 mm 0,0 UV-I 0 W/m 0,7 C 2,2 C 3,2 km/h (1 Bft) 98,00 %
26.02.2017 22:28 2,3 C 91 % 1016,2 hPa 0,0 l/m 1,3 km/h (1 Bft) O 80 0 min 0,000 mm 0,0 UV-I 0 W/m 1,0 C 2,3 C 3,2 km/h (1 Bft) 97,37 %
26.02.2017 22:30 2,3 C 90 % 1016,2 hPa 0,0 l/m 2,4 km/h (1 Bft) O 80 0 min 0,000 mm 0,0 UV-I 0 W/m 0,8 C 2,3 C 3,2 km/h (1 Bft) 94,34 %
26.02.2017 22:32 2,3 C 90 % 1016,1 hPa 0,0 l/m 3,0 km/h (1 Bft) O 80 0 min 0,000 mm 0,0 UV-I 0 W/m 0,8 C 2,3 C 4,8 km/h (1 Bft) 98,00 %
26.02.2017 22:34 2,1 C 89 % 1016,1 hPa 0,0 l/m 4,2 km/h (1 Bft) O 81 0 min 0,000 mm 0,0 UV-I 0 W/m 0,5 C 2,1 C 4,8 km/h (1 Bft) 95,12 %
26.02.2017 22:36 2,0 C 90 % 1016,1 hPa 0,0 l/m 2,7 km/h (1 Bft) O 82 0 min 0,000 mm 0,0 UV-I 0 W/m 0,5 C 2,0 C 4,8 km/h (1 Bft) 97,87 %
26.02.2017 22:38 1,8 C 90 % 1016,2 hPa 0,0 l/m 1,5 km/h (1 Bft) O 82 0 min 0,000 mm 0,0 UV-I 0 W/m 0,3 C 1,8 C 3,2 km/h (1 Bft) 96,00 %
26.02.2017 22:40 1,7 C 90 % 1016,1 hPa 0,0 l/m 0,0 km/h (0 Bft) O 82 0 min 0,000 mm 0,0 UV-I 0 W/m 0,2 C 1,7 C 0,0 km/h (0 Bft) 95,74 %
26.02.2017 22:42 1,7 C 91 % 1016,1 hPa 0,0 l/m 2,3 km/h (1 Bft) O 82 0 min 0,000 mm 0,0 UV-I 0 W/m 0,4 C 1,7 C 3,2 km/h (1 Bft) 97,62 %
26.02.2017 22:44 1,7 C 91 % 1016,1 hPa 0,0 l/m 1,9 km/h (1 Bft) O 82 0 min 0,000 mm 0,0 UV-I 0 W/m 0,4 C 1,7 C 3,2 km/h (1 Bft) 95,74 %
26.02.2017 22:46 1,7 C 91 % 1016,1 hPa 0,0 l/m 1,9 km/h (1 Bft) O 82 0 min 0,000 mm 0,0 UV-I 0 W/m 0,4 C 1,7 C 3,2 km/h (1 Bft) 92,45 %
26.02.2017 22:49 1,9 C 91 % 1016,0 hPa 0,0 l/m 0,3 km/h (0 Bft) O 82 0 min 0,000 mm 0,0 UV-I 0 W/m 0,6 C 1,9 C 1,6 km/h (1 Bft) 95,89 %
26.02.2017 22:50 1,9 C 91 % 1016,0 hPa 0,0 l/m 2,2 km/h (1 Bft) O 82 0 min 0,000 mm 0,0 UV-I 0 W/m 0,6 C 1,9 C 3,2 km/h (1 Bft) 100,00 %
26.02.2017 22:52 1,8 C 90 % 1016,1 hPa 0,0 l/m 1,4 km/h (1 Bft) O 82 0 min 0,000 mm 0,0 UV-I 0 W/m 0,3 C 1,8 C 3,2 km/h (1 Bft) 93,62 %
26.02.2017 22:54 1,8 C 91 % 1016,1 hPa 0,0 l/m 1,2 km/h (1 Bft) O 82 0 min 0,000 mm 0,0 UV-I 0 W/m 0,5 C 1,8 C 3,2 km/h (1 Bft) 98,11 %
26.02.2017 22:56 1,9 C 91 % 1016,1 hPa 0,0 l/m 1,4 km/h (1 Bft) O 82 0 min 0,000 mm 0,0 UV-I 0 W/m 0,6 C 1,9 C 3,2 km/h (1 Bft) 95,12 %
26.02.2017 22:58 1,9 C 91 % 1016,0 hPa 0,0 l/m 1,9 km/h (1 Bft) O 82 0 min 0,000 mm 0,0 UV-I 0 W/m 0,6 C 1,9 C 4,8 km/h (1 Bft) 95,74 %
26.02.2017 23:00 1,9 C 91 % 1016,1 hPa 0,0 l/m 1,0 km/h (0 Bft) O 82 0 min 0,000 mm 0,0 UV-I 0 W/m 0,6 C 1,9 C 3,2 km/h (1 Bft) 97,56 %
26.02.2017 23:02 1,6 C 90 % 1016,0 hPa 0,0 l/m 0,8 km/h (0 Bft) O 82 0 min 0,000 mm 0,0 UV-I 0 W/m 0,1 C 1,6 C 1,6 km/h (1 Bft) 98,21 %
26.02.2017 23:04 1,6 C 91 % 1016,0 hPa 0,0 l/m 0,0 km/h (0 Bft) O 82 0 min 0,000 mm 0,0 UV-I 0 W/m 0,3 C 1,6 C 0,0 km/h (0 Bft) 93,62 %
26.02.2017 23:06 1,7 C 92 % 1015,9 hPa 0,0 l/m 0,0 km/h (0 Bft) O 82 0 min 0,000 mm 0,0 UV-I 0 W/m 0,5 C 1,7 C 0,0 km/h (0 Bft) 94,34 %
26.02.2017 23:08 1,7 C 91 % 1016,0 hPa 0,0 l/m 0,0 km/h (0 Bft) O 82 0 min 0,000 mm 0,0 UV-I 0 W/m 0,4 C 1,7 C 0,0 km/h (0 Bft) 94,74 %
26.02.2017 23:10 1,7 C 91 % 1016,0 hPa 0,0 l/m 0,0 km/h (0 Bft) O 82 0 min 0,000 mm 0,0 UV-I 0 W/m 0,4 C 1,7 C 0,0 km/h (0 Bft) 98,08 %
26.02.2017 23:12 1,7 C 91 % 1015,9 hPa 0,0 l/m 0,0 km/h (0 Bft) O 82 0 min 0,000 mm 0,0 UV-I 0 W/m 0,4 C 1,7 C 0,0 km/h (0 Bft) 95,83 %
26.02.2017 23:14 1,6 C 91 % 1015,9 hPa 0,0 l/m 0,9 km/h (0 Bft) O 82 0 min 0,000 mm 0,0 UV-I 0 W/m 0,3 C 1,6 C 3,2 km/h (1 Bft) 89,36 %
26.02.2017 23:16 1,4 C 91 % 1015,9 hPa 0,0 l/m 0,5 km/h (0 Bft) O 82 0 min 0,000 mm 0,0 UV-I 0 W/m 0,1 C 1,4 C 1,6 km/h (1 Bft) 97,87 %
26.02.2017 23:18 1,3 C 91 % 1015,9 hPa 0,0 l/m 0,0 km/h (0 Bft) O 82 0 min 0,000 mm 0,0 UV-I 0 W/m -0,0 C 1,3 C 0,0 km/h (0 Bft) 92,50 %
26.02.2017 23:20 1,2 C 91 % 1015,9 hPa 0,0 l/m 0,4 km/h (0 Bft) O 82 0 min 0,000 mm 0,0 UV-I 0 W/m -0,1 C 1,2 C 1,6 km/h (1 Bft) 98,21 %
26.02.2017 23:22 1,2 C 92 % 1015,9 hPa 0,0 l/m 0,5 km/h (0 Bft) O 82 0 min 0,000 mm 0,0 UV-I 0 W/m 0,0 C 1,2 C 3,2 km/h (1 Bft) 92,11 %
26.02.2017 23:24 1,2 C 92 % 1015,9 hPa 0,0 l/m 0,0 km/h (0 Bft) O 82 0 min 0,000 mm 0,0 UV-I 0 W/m 0,0 C 1,2 C 0,0 km/h (0 Bft) 96,00 %
26.02.2017 23:26 1,2 C 92 % 1015,9 hPa 0,0 l/m 0,0 km/h (0 Bft) O 82 0 min 0,000 mm 0,0 UV-I 0 W/m 0,0 C 1,2 C 0,0 km/h (0 Bft) 97,83 %
26.02.2017 23:28 1,2 C 92 % 1015,9 hPa 0,0 l/m 0,0 km/h (0 Bft) O 82 0 min 0,000 mm 0,0 UV-I 0 W/m 0,0 C 1,2 C 0,0 km/h (0 Bft) 92,00 %
26.02.2017 23:30 1,1 C 91 % 1015,9 hPa 0,0 l/m 0,1 km/h (0 Bft) O 82 0 min 0,000 mm 0,0 UV-I 0 W/m -0,2 C 1,1 C 1,6 km/h (1 Bft) 94,00 %
26.02.2017 23:32 0,8 C 91 % 1016,0 hPa 0,0 l/m 0,0 km/h (0 Bft) O 82 0 min 0,000 mm 0,0 UV-I 0 W/m -0,5 C 0,8 C 0,0 km/h (0 Bft) 95,83 %
26.02.2017 23:34 0,8 C 92 % 1016,0 hPa 0,0 l/m 0,0 km/h (0 Bft) O 82 0 min 0,000 mm 0,0 UV-I 0 W/m -0,3 C 0,8 C 0,0 km/h (0 Bft) 97,37 %
26.02.2017 23:36 0,8 C 92 % 1016,0 hPa 0,0 l/m 0,0 km/h (0 Bft) O 82 0 min 0,000 mm 0,0 UV-I 0 W/m -0,3 C 0,8 C 0,0 km/h (0 Bft) 97,87 %
26.02.2017 23:38 0,9 C 93 % 1016,0 hPa 0,0 l/m 0,0 km/h (0 Bft) O 82 0 min 0,000 mm 0,0 UV-I 0 W/m -0,1 C 0,9 C 0,0 km/h (0 Bft) 97,92 %
26.02.2017 23:40 0,9 C 93 % 1016,0 hPa 0,0 l/m 0,0 km/h (0 Bft) O 82 0 min 0,000 mm 0,0 UV-I 0 W/m -0,1 C 0,9 C 0,0 km/h (0 Bft) 98,08 %
26.02.2017 23:42 0,9 C 93 % 1016,1 hPa 0,0 l/m 0,0 km/h (0 Bft) O 82 0 min 0,000 mm 0,0 UV-I 0 W/m -0,1 C 0,9 C 0,0 km/h (0 Bft) 100,00 %
26.02.2017 23:44 0,9 C 93 % 1016,1 hPa 0,0 l/m 0,0 km/h (0 Bft) O 82 0 min 0,000 mm 0,0 UV-I 0 W/m -0,1 C 0,9 C 0,0 km/h (0 Bft) 100,00 %
26.02.2017 23:46 0,9 C 93 % 1016,1 hPa 0,0 l/m 0,0 km/h (0 Bft) O 82 0 min 0,000 mm 0,0 UV-I 0 W/m -0,1 C 0,9 C 0,0 km/h (0 Bft) 94,74 %
26.02.2017 23:48 0,9 C 93 % 1016,1 hPa 0,0 l/m 0,0 km/h (0 Bft) O 82 0 min 0,000 mm 0,0 UV-I 0 W/m -0,1 C 0,9 C 0,0 km/h (0 Bft) 98,00 %
26.02.2017 23:50 0,8 C 92 % 1016,1 hPa 0,0 l/m 0,0 km/h (0 Bft) O 82 0 min 0,000 mm 0,0 UV-I 0 W/m -0,3 C 0,8 C 0,0 km/h (0 Bft) 97,87 %
26.02.2017 23:52 0,8 C 93 % 1016,1 hPa 0,0 l/m 0,0 km/h (0 Bft) O 82 0 min 0,000 mm 0,0 UV-I 0 W/m -0,2 C 0,8 C 0,0 km/h (0 Bft) 97,87 %
26.02.2017 23:54 0,7 C 93 % 1016,1 hPa 0,0 l/m 0,8 km/h (0 Bft) O 82 0 min 0,000 mm 0,0 UV-I 0 W/m -0,3 C 0,7 C 1,6 km/h (1 Bft) 100,00 %
26.02.2017 23:56 0,7 C 93 % 1016,1 hPa 0,0 l/m 0,5 km/h (0 Bft) O 82 0 min 0,000 mm 0,0 UV-I 0 W/m -0,3 C 0,7 C 1,6 km/h (1 Bft) 98,00 %
26.02.2017 23:58 0,7 C 93 % 1016,1 hPa 0,0 l/m 0,0 km/h (0 Bft) O 82 0 min 0,000 mm 0,0 UV-I 0 W/m -0,3 C 0,7 C 0,0 km/h (0 Bft) 100,00 %
_ Min-Zeit 03:42 13:18 23:06 - 00:00 - - - - - - 01:50 03:42 00:00 11:20
Minimum _ -1,7 C 63 % 1015,9 hPa - 0,0 km/h (0 Bft) - - - - - - -2,9 C -1,7 C 0,0 km/h (0 Bft) 86,84 %
_ Max-Zeit 13:46 05:36 00:00 00:00 11:04 - - 07:02 12:02 13:06 13:06 18:54 13:48 11:04 00:16
Maximum _ 7,7 C 94 % 1020,7 hPa 0,0 l/m 8,9 km/h
W (2 Bft)
- - 2 min 0,127 mm 1,4 UV-I 378 W/m 2,6 C 7,7 C 12,9 km/h
W-SW (3 Bft)
100,00 %
Durchschnitt _ 2,8 C 82 % 1017,9 hPa #0,0 l/m 2,2 km/h (1 Bft) SO - #3:18 h #0,889 mm 0,8 UV-I 169 W/m -0,1 C 2,8 C 4,0 km/h (1 Bft) 96,90 %